GFSGBSN_sfc_thetae_036.txt.gz
Theta_e
321 321 321 321 320 319 316 316 316 317 318 319 320 322 323 323 323 323 323 324 324 325 326 326 326 327 314 300 300 310 332 320 309 310 309 307 302 301 297 298 299 295 298 302 303 302 301
320 320 320 320 320 319 317 316 315 315 317 318 319 322 322 322 322 322 323 323 323 324 325 324 325 326 308 295 306 309 308 307 308 309 307 307 303 304 299 297 296 298 299 299 298 299 300
318 318 318 318 319 319 317 316 316 316 317 318 320 322 321 321 321 321 322 323 323 324 324 324 325 318 300 298 306 306 307 305 306 307 305 307 306 299 300 295 301 299 294 295 295 296 298
317 317 317 317 317 317 317 317 317 317 317 319 320 321 321 321 321 321 321 322 323 323 324 325 324 309 294 305 306 305 306 305 307 307 308 307 307 304 299 300 297 293 291 287 294 298 299
317 317 317 317 317 316 316 316 317 319 319 319 320 320 320 320 320 320 321 322 323 324 325 325 307 300 293 312 302 303 303 302 305 306 307 310 306 299 299 292 288 289 285 285 290 297 297
317 317 317 317 317 317 317 317 318 318 319 319 319 319 319 319 319 320 321 321 321 321 318 315 310 295 299 298 302 303 301 304 303 303 303 302 296 292 291 289 282 285 286 286 286 293 292
317 317 317 317 317 317 317 317 317 318 320 320 320 319 319 318 318 319 314 306 301 299 302 295 297 297 300 304 304 302 304 303 302 299 292 296 292 287 289 291 291 289 287 286 289 294 289
317 317 317 316 317 317 317 317 317 318 319 319 320 319 319 318 318 317 309 304 300 300 297 303 302 302 304 303 298 302 304 297 296 291 293 292 287 293 295 295 293 291 287 286 291 295 289
317 317 316 316 316 316 317 317 318 319 318 318 319 319 318 317 317 309 307 307 312 306 297 300 303 301 302 303 298 300 301 297 294 292 292 289 293 298 295 293 291 289 287 287 288 292 289
317 317 316 316 316 316 316 317 317 318 318 317 317 317 317 318 310 308 306 311 311 306 291 294 299 301 303 303 299 304 304 299 296 292 293 291 296 295 293 291 292 286 293 293 291 288 282
317 317 316 316 316 316 316 317 317 318 317 318 317 316 317 316 305 307 308 311 308 303 280 297 299 306 301 300 300 301 303 302 294 294 293 289 291 292 291 292 294 291 293 291 290 287 283
317 317 316 316 315 316 317 317 317 318 318 317 317 316 315 310 307 307 309 308 303 289 281 295 300 298 297 298 297 301 297 298 297 293 293 292 296 294 293 295 294 293 289 287 286 284 279
317 317 315 315 315 316 317 317 317 317 317 316 316 316 314 311 306 309 308 300 288 283 295 293 294 296 295 292 293 295 292 287 286 284 282 288 291 292 294 289 291 289 281 277 277 278 279
317 317 315 315 316 316 317 317 317 317 316 315 315 314 310 306 307 308 303 295 282 290 291 295 294 295 292 291 290 293 291 287 287 285 282 282 283 288 292 288 285 285 283 278 275 274 276
317 317 315 315 315 316 317 318 318 317 316 314 313 302 296 298 307 305 298 287 285 289 291 290 293 289 289 290 288 289 287 286 286 285 279 279 280 287 289 289 288 283 281 284 279 277 275
316 316 316 314 314 315 316 317 318 317 315 312 302 293 294 296 305 301 294 291 286 289 292 291 288 288 287 286 283 284 285 288 288 288 285 281 277 283 287 289 287 284 287 279 278 274 273
316 316 316 314 314 315 316 316 316 316 314 312 300 290 294 296 301 296 290 287 287 292 293 289 288 286 286 284 282 282 284 288 290 287 285 281 279 279 282 281 280 281 280 280 279 277 274
315 316 315 314 314 314 315 315 315 314 312 303 291 288 293 296 291 283 286 288 294 290 292 290 288 287 285 284 281 283 285 287 290 287 281 282 278 275 278 282 284 282 279 280 276 274 273
315 315 315 314 314 314 314 315 314 313 309 293 287 287 294 293 284 282 284 288 289 289 287 288 286 287 286 283 280 284 286 291 289 286 283 282 277 274 277 280 283 280 282 281 278 276 272
315 315 315 314 313 313 313 314 314 312 310 294 290 286 288 286 283 285 283 283 284 289 287 288 286 286 284 282 283 282 285 290 289 288 295 287 277 277 277 277 279 279 280 281 279 271 274
315 314 314 314 313 313 313 313 313 311 310 294 288 286 286 283 283 282 283 284 283 283 286 286 284 285 283 279 281 281 285 286 288 293 286 283 277 277 279 280 279 279 279 280 278 278 276
315 314 314 313 312 313 313 313 313 310 306 292 288 286 284 282 282 283 284 283 285 284 283 282 283 285 282 280 282 281 283 282 283 285 284 282 277 278 277 280 279 279 281 281 281 281 280
315 314 314 314 312 312 312 312 312 309 303 292 291 290 288 285 282 283 282 283 286 286 285 286 285 284 282 284 285 284 284 284 283 284 282 280 278 275 271 277 277 275 278 280 280 281 281
316 315 314 314 312 312 312 312 312 311 302 295 292 289 288 283 283 285 286 287 285 284 283 286 285 283 286 288 287 286 284 284 283 283 284 279 278 277 271 274 269 280 282 283 282 283 284
317 316 315 314 313 312 311 311 311 311 305 295 293 291 287 284 284 285 286 285 284 284 284 285 286 286 288 286 280 279 280 280 281 282 282 282 279 273 269 269 276 280 281 281 280 280 285
317 316 316 315 313 312 311 311 310 311 308 296 294 293 289 287 287 287 286 284 283 281 282 285 287 287 287 284 281 272 275 277 278 278 282 281 280 276 273 265 268 279 283 285 283 276 283
318 315 315 316 314 313 311 310 310 310 310 298 295 295 290 287 288 286 285 285 285 283 282 283 284 284 285 280 278 275 276 280 276 276 276 276 276 274 273 268 275 282 284 285 274 280 283
313 316 315 314 314 313 311 310 309 309 309 299 296 297 291 287 289 291 291 286 285 285 283 284 284 283 281 278 277 277 275 280 276 278 278 277 274 273 273 269 271 285 283 280 283 282 284
310 311 313 315 314 313 312 310 309 309 308 300 293 298 297 290 293 294 295 294 291 290 286 284 284 283 284 280 278 277 278 275 278 275 278 276 281 276 277 277 284 287 285 285 285 284 285

GFSGBSN_sfc_thetae_039.txt.gz
Theta_e
321 321 320 320 319 319 316 316 316 317 318 319 320 321 322 322 323 323 323 323 324 324 325 326 326 327 317 304 303 309 330 320 311 314 311 311 307 306 303 303 303 302 302 304 305 304 303
320 320 320 319 319 318 317 316 316 315 317 318 319 321 322 322 323 322 322 323 323 324 325 325 325 326 312 300 308 309 308 309 309 312 310 310 308 308 304 302 301 303 302 302 301 301 302
317 317 316 316 317 317 316 316 315 315 317 317 319 321 321 322 321 321 321 322 323 324 324 324 325 318 304 302 310 308 308 308 309 311 309 311 311 305 305 301 304 302 299 300 299 301 301
316 316 316 316 316 316 316 316 316 317 317 318 319 320 321 321 320 321 321 322 323 323 324 325 324 311 299 307 309 306 308 308 309 310 311 313 311 307 304 304 300 297 297 295 297 301 301
317 316 316 316 316 317 317 317 317 318 318 319 319 320 321 320 320 320 321 321 322 323 325 326 312 306 299 313 304 306 308 306 309 309 311 310 309 303 303 297 294 294 292 292 294 298 299
317 317 316 316 315 316 316 316 316 317 318 319 319 320 319 319 319 319 320 320 320 321 317 316 309 300 302 300 304 305 307 307 305 307 307 305 300 297 296 295 289 290 291 292 292 296 296
317 316 316 316 316 315 315 315 315 317 319 320 320 319 319 318 318 318 314 307 302 301 304 298 300 299 301 306 306 304 306 306 306 302 298 300 297 294 295 296 295 294 292 292 294 297 293
317 317 316 316 316 316 316 316 316 317 319 319 319 319 319 318 317 317 310 305 301 303 299 304 303 303 305 305 300 304 307 301 300 296 299 296 294 298 298 297 297 295 293 292 294 296 294
317 317 316 316 316 316 316 317 317 318 318 318 319 319 319 317 317 310 308 309 313 309 298 301 304 302 304 304 300 301 304 301 298 297 296 294 297 299 298 296 295 293 292 291 292 294 291
317 317 316 316 316 316 316 317 317 317 317 317 318 318 317 317 311 309 307 312 312 309 291 295 300 304 304 305 301 305 304 303 300 296 296 296 298 297 296 295 295 291 295 295 293 292 289
317 317 315 316 315 316 317 317 317 317 317 317 316 316 317 316 307 307 309 312 310 303 283 297 301 308 303 302 302 303 302 304 297 297 298 295 295 295 295 295 298 294 294 293 293 291 289
318 317 315 315 315 315 317 317 317 317 317 317 317 315 315 310 307 309 310 309 303 290 283 296 301 299 299 299 298 301 298 299 299 295 297 295 298 297 296 297 296 294 291 290 290 288 284
317 317 315 315 315 317 318 318 317 317 316 316 315 316 314 311 305 309 308 301 290 285 297 294 296 298 296 294 295 296 293 289 289 289 289 291 293 294 296 293 294 292 286 284 283 283 284
317 317 315 315 315 317 318 318 318 317 316 316 315 315 308 304 307 308 303 295 284 291 293 295 295 296 294 292 292 294 293 288 289 288 286 285 287 291 293 292 289 289 287 284 280 280 281
317 316 315 315 316 317 317 318 318 318 316 314 312 298 296 297 306 305 297 287 286 291 292 292 294 292 292 292 290 291 290 288 289 288 285 283 284 289 290 291 291 288 285 289 282 281 280
316 316 315 315 315 316 316 317 317 317 315 312 298 293 294 295 303 302 294 290 289 290 292 292 290 291 289 290 287 288 288 291 289 289 289 285 282 286 289 291 290 289 289 283 283 279 277
316 316 315 314 314 314 315 316 316 315 313 311 295 292 295 294 300 297 290 288 289 292 293 291 290 288 289 287 286 286 286 290 292 288 288 286 283 284 286 285 285 286 285 283 284 282 280
316 316 315 314 313 314 314 315 314 313 311 301 290 289 294 297 292 285 287 289 294 290 292 291 290 289 288 286 284 285 287 289 291 289 285 286 281 280 283 285 287 286 284 285 283 279 278
316 315 315 314 313 314 314 314 313 313 307 293 288 288 294 294 286 284 286 288 290 289 288 289 288 288 288 285 283 286 288 292 290 288 285 286 281 280 283 284 287 284 284 282 282 281 278
315 315 315 314 313 313 313 314 313 311 305 294 289 286 288 286 284 286 285 285 285 289 288 288 287 288 286 284 285 284 287 291 291 291 294 288 280 281 282 283 283 282 283 283 283 279 280
315 316 315 314 313 313 313 314 313 310 309 295 288 286 285 284 284 283 284 284 283 284 287 287 285 286 284 282 283 283 287 288 290 295 288 286 281 280 280 281 281 281 281 282 281 283 281
316 315 315 314 312 312 313 313 312 309 305 291 288 286 284 283 283 283 286 284 284 285 285 284 284 286 284 282 283 282 285 286 285 288 287 284 281 281 279 281 281 280 283 282 282 283 281
316 315 315 314 313 312 313 312 312 308 302 292 290 289 289 284 282 283 284 285 287 286 286 287 286 285 284 285 286 287 286 285 286 286 284 283 281 278 277 278 279 278 280 283 282 283 284
317 316 315 315 313 312 312 312 312 309 301 295 292 289 290 284 284 285 286 287 286 285 285 287 287 285 288 289 288 287 287 286 286 285 285 281 281 280 277 278 275 285 286 285 284 285 286
317 317 316 315 313 312 312 311 311 310 304 295 292 290 289 285 284 285 286 286 285 285 285 286 287 287 289 286 282 281 281 283 282 283 284 284 282 279 276 274 279 283 283 283 282 284 287
317 315 315 315 314 312 312 311 310 310 305 296 294 292 290 289 288 288 286 286 284 282 283 286 288 288 288 284 282 276 278 280 280 280 283 283 282 280 275 272 273 283 285 287 286 280 287
315 316 313 313 314 313 312 311 310 310 308 297 295 294 290 288 289 287 286 286 285 283 282 284 286 286 286 282 281 279 279 282 279 278 278 278 279 277 277 274 278 284 287 288 279 285 286
312 314 314 313 312 312 312 311 310 310 308 298 295 296 294 289 290 291 290 286 286 285 284 284 285 284 282 280 279 279 279 281 280 280 279 278 276 275 277 274 274 286 285 283 288 286 287
310 310 311 313 314 312 312 311 310 309 308 300 292 297 296 293 293 293 294 294 291 291 287 285 285 284 285 281 280 279 280 278 280 278 281 278 282 279 280 279 287 287 288 290 288 288 288

GFSGBSN_sfc_thetae_042.txt.gz
Theta_e
320 320 319 319 319 318 316 317 317 317 318 319 320 321 322 323 323 323 323 324 324 325 325 326 326 328 321 309 307 314 331 324 316 317 315 314 311 311 308 309 308 307 307 308 307 307 307
317 318 317 318 318 318 317 316 316 316 317 318 319 320 322 322 322 322 323 323 323 324 325 325 326 326 316 304 313 315 313 312 314 316 314 315 312 312 310 307 306 307 306 305 307 307 306
316 316 316 315 317 317 317 316 315 316 316 318 318 320 321 322 322 322 322 322 323 324 324 324 325 320 309 307 315 315 313 312 312 314 311 313 312 308 309 305 308 306 303 305 305 306 304
317 316 316 315 315 316 316 315 315 316 317 318 318 320 321 321 322 321 321 322 323 323 324 325 325 316 305 312 316 311 313 312 314 315 315 315 315 311 307 309 305 303 303 300 303 305 304
316 316 316 315 315 315 316 316 317 317 318 319 319 320 320 321 321 321 320 321 322 324 325 326 316 310 303 318 309 311 312 309 312 313 315 314 313 309 308 304 301 302 298 298 299 303 303
316 316 315 316 315 316 316 316 316 317 318 318 319 319 320 320 320 319 320 320 322 323 319 319 313 306 307 304 309 309 312 311 309 310 310 310 309 305 305 302 295 296 297 298 298 301 302
316 315 315 315 315 315 316 316 316 317 318 319 319 320 320 319 318 318 317 315 311 308 311 304 304 304 305 310 311 310 311 309 309 308 303 306 303 300 301 302 301 300 299 298 300 301 300
316 316 316 315 315 315 315 315 316 317 318 320 320 320 320 318 317 317 317 311 308 312 304 308 307 308 309 310 305 310 312 305 304 301 303 303 300 302 302 301 300 300 298 298 299 300 300
317 316 316 315 315 315 316 316 317 318 319 319 320 320 319 317 317 316 316 314 319 315 305 305 308 307 308 309 305 307 309 306 303 301 301 300 301 302 301 300 299 299 297 297 296 299 298
316 316 316 315 314 316 316 316 317 318 318 318 320 320 318 317 314 317 314 318 320 315 301 300 304 307 308 309 305 308 308 306 304 300 301 301 302 301 300 299 300 296 299 298 297 296 294
317 316 316 315 314 316 317 317 317 317 317 317 318 317 317 315 316 313 315 320 319 314 290 301 304 312 309 305 306 306 306 307 302 302 302 299 299 299 298 299 300 298 298 297 297 296 294
316 316 315 314 315 317 318 317 317 317 317 317 316 316 315 315 318 315 318 317 314 298 290 299 304 303 303 303 302 305 303 305 303 301 302 300 302 300 300 300 299 298 296 295 296 295 290
317 316 315 315 316 318 318 318 317 317 316 317 317 316 316 317 313 317 317 314 298 293 301 298 299 302 301 299 299 301 298 296 297 294 296 297 298 298 299 297 298 297 294 291 290 290 291
317 316 315 315 317 318 318 318 318 317 316 315 315 316 309 308 316 316 315 304 293 295 298 300 300 300 298 297 298 299 297 295 293 293 295 293 292 296 296 296 294 294 293 290 285 288 290
317 316 315 316 316 317 318 318 319 318 316 315 313 308 308 305 312 315 309 297 296 297 299 298 298 297 297 295 295 296 296 295 293 292 291 291 290 293 293 295 295 293 292 294 289 288 287
317 316 315 315 315 316 317 317 317 316 314 313 310 307 304 303 311 314 304 297 297 295 296 297 297 296 295 296 293 294 293 295 292 292 294 290 288 290 292 294 295 294 295 290 291 285 284
317 316 314 315 314 315 315 316 316 315 314 309 308 304 303 305 309 309 299 297 294 295 297 296 297 295 296 295 293 292 292 293 295 291 293 291 288 288 290 291 292 291 291 290 290 289 286
316 316 315 314 314 315 315 315 314 313 311 311 306 300 303 306 303 300 300 295 296 294 296 295 296 295 294 292 291 291 291 293 294 293 289 290 289 288 289 290 291 291 290 292 288 287 288
316 315 315 314 313 314 314 314 313 312 307 308 303 301 304 304 299 298 294 293 294 293 293 293 292 293 293 291 289 290 292 294 292 291 290 291 289 288 288 289 291 289 290 289 289 289 287
317 316 315 314 313 314 314 314 312 309 306 307 301 297 300 300 297 297 294 292 291 293 293 293 292 292 291 290 290 289 291 292 293 293 293 292 289 289 289 289 290 288 288 289 289 287 288
316 316 315 314 313 314 314 314 311 309 309 307 301 297 294 295 295 295 294 293 290 290 292 293 291 291 290 288 289 289 291 292 292 296 292 292 288 287 289 288 286 286 287 288 286 289 286
316 316 316 315 313 314 313 313 311 309 305 304 301 298 295 293 292 294 292 291 290 290 291 290 289 291 290 289 290 289 291 292 291 293 292 291 288 287 286 286 286 285 288 288 288 288 288
317 316 316 315 314 313 313 312 311 308 306 305 300 298 301 290 292 294 294 292 292 293 291 292 291 291 290 290 292 292 293 292 293 292 292 289 288 286 285 284 284 284 288 289 289 290 289
317 317 316 315 314 313 313 313 312 308 306 307 303 302 303 294 294 294 292 292 291 291 291 291 293 292 293 296 294 294 293 291 292 291 292 288 287 287 284 285 282 290 292 290 289 291 292
317 315 315 315 314 313 312 312 311 308 306 305 303 303 304 296 295 292 292 292 292 292 291 291 292 293 296 293 290 287 288 288 287 288 289 290 289 285 283 283 287 291 289 288 286 289 294
317 313 313 313 314 313 313 313 312 310 305 306 302 301 303 301 297 295 294 293 293 292 291 291 293 295 295 293 290 289 289 287 286 285 288 288 289 286 283 280 281 290 289 291 290 286 294
315 314 312 312 312 313 313 312 311 311 307 307 304 302 303 301 297 296 296 295 294 292 294 292 292 292 293 291 289 289 289 287 286 285 284 285 285 283 284 282 286 292 291 291 284 290 294
312 314 314 313 313 312 313 312 311 310 308 306 303 305 303 303 299 296 295 294 293 295 296 292 292 291 291 289 290 290 288 289 287 288 286 287 285 284 284 281 280 292 290 287 295 295 293
310 310 311 312 313 313 313 312 311 310 308 303 303 304 302 305 301 298 299 299 297 297 297 293 294 293 296 293 291 292 289 289 290 286 289 285 290 290 288 288 294 294 295 297 296 294 295

GFSGBSN_sfc_thetae_045.txt.gz
Theta_e
319 319 319 319 319 318 317 316 317 318 318 319 321 322 323 323 323 323 324 324 324 325 326 326 327 327 324 313 309 316 331 330 319 319 317 315 313 313 311 311 311 309 309 309 309 310 310
318 318 318 318 318 318 318 317 317 316 317 318 319 321 322 323 323 323 323 323 324 324 325 326 326 326 320 306 315 317 315 315 317 317 315 316 314 314 311 310 309 310 308 307 309 309 309
316 316 315 316 317 317 317 317 316 316 317 318 319 320 322 322 322 322 322 322 323 324 324 325 326 323 314 309 316 316 315 314 316 316 312 315 314 311 311 308 310 308 305 306 307 308 306
316 316 316 316 315 316 317 316 317 316 317 318 319 320 321 321 322 321 322 322 323 323 324 325 326 320 309 314 317 313 315 314 316 318 317 317 316 311 310 310 307 305 305 301 306 307 307
316 316 315 315 315 316 316 316 317 317 318 319 319 320 320 320 321 321 321 321 322 324 325 326 321 316 305 315 311 313 314 311 313 315 316 316 316 311 309 305 303 304 298 302 302 306 306
316 316 315 315 315 315 316 316 317 318 318 319 320 319 320 320 320 320 320 320 321 323 321 321 317 308 308 306 311 312 315 313 311 311 312 312 310 307 306 303 296 299 300 301 300 304 304
316 316 316 315 315 315 315 316 316 317 318 319 319 319 320 320 320 320 317 316 313 311 312 307 307 306 307 311 313 312 313 311 311 309 304 308 304 301 304 305 304 302 300 300 303 304 301
316 316 316 316 316 315 315 316 316 317 318 319 320 320 320 320 319 318 318 313 313 315 305 310 309 309 311 312 307 311 314 307 306 303 305 304 301 305 304 304 303 302 301 301 303 303 301
317 316 316 315 315 316 316 316 316 318 319 320 320 320 320 320 317 315 317 315 321 318 307 306 309 308 309 311 307 308 311 308 305 303 304 302 304 305 303 302 301 302 300 300 299 302 304
317 316 315 315 314 316 317 317 317 318 319 319 320 320 320 318 311 318 317 320 323 321 302 302 305 308 310 311 306 311 311 309 306 303 304 304 305 302 302 301 302 298 302 300 299 299 295
315 317 315 313 314 316 317 317 317 318 318 318 320 320 319 314 318 314 318 323 322 318 291 303 305 314 310 307 308 308 310 310 304 304 304 301 301 301 301 301 302 300 301 300 300 298 297
316 316 315 314 315 317 317 317 317 317 317 318 318 317 317 317 321 319 322 321 317 300 292 301 306 304 305 306 306 307 306 308 307 304 304 303 305 303 303 303 302 302 300 300 299 297 291
316 315 315 315 316 318 318 317 317 317 317 318 317 317 316 319 316 322 321 316 300 294 303 300 302 304 304 303 302 303 302 301 299 297 297 300 300 301 302 299 302 300 298 292 292 291 292
316 316 315 316 317 318 318 318 318 317 317 317 316 317 314 314 321 321 317 306 295 298 300 304 303 303 301 302 302 302 301 299 297 297 296 295 294 299 300 299 298 298 297 292 287 289 292
316 315 315 316 317 317 318 318 318 317 316 315 315 315 315 312 317 319 311 299 299 300 303 301 302 300 300 300 298 300 299 299 297 296 294 294 294 297 297 298 298 296 293 297 292 294 290
316 315 315 315 316 316 317 317 317 316 316 315 314 313 310 310 316 316 307 300 300 300 300 301 299 301 298 300 296 297 298 298 295 294 296 295 290 295 295 297 297 296 298 292 293 287 287
316 316 315 315 315 315 316 316 316 314 315 314 311 308 307 312 314 311 302 300 299 299 300 299 300 299 299 298 298 297 296 296 297 294 296 295 292 291 293 293 295 294 293 293 293 292 288
316 316 315 314 314 314 315 314 314 314 312 308 312 303 308 313 305 308 303 299 296 298 300 299 299 299 298 297 296 296 295 296 297 296 293 294 293 290 292 293 294 294 294 294 290 290 292
316 315 315 314 314 314 314 313 312 314 309 316 307 305 309 310 300 300 299 297 297 297 297 297 296 297 297 296 293 294 295 297 295 294 293 295 293 290 290 292 293 290 294 293 294 292 288
317 316 315 314 314 314 314 312 312 307 307 308 305 300 303 307 304 301 299 297 295 296 296 296 295 296 295 293 294 293 294 295 295 295 294 294 293 291 289 291 292 291 292 293 292 289 290
317 317 316 314 313 314 314 312 311 310 310 309 307 303 300 299 299 300 299 298 294 293 295 296 294 294 293 291 292 291 294 294 294 297 295 294 290 292 292 292 292 290 290 291 290 291 288
317 317 317 315 313 314 314 312 310 309 306 309 305 302 301 300 298 298 293 295 294 292 294 293 292 294 293 292 293 291 294 294 294 296 294 295 290 291 289 291 289 287 290 291 291 291 291
317 317 316 315 314 314 314 312 311 309 307 311 305 304 305 295 298 299 299 297 295 296 294 295 294 294 292 294 295 295 297 295 295 294 294 292 291 289 287 289 289 287 292 293 293 294 293
316 315 315 315 314 313 314 313 311 309 309 313 308 308 306 299 300 300 297 296 295 295 294 295 296 295 296 298 297 297 296 294 294 294 296 292 290 290 286 289 283 293 298 296 291 292 294
315 314 314 314 314 313 313 313 311 309 308 310 309 309 308 302 303 298 297 296 296 295 295 295 295 297 299 295 293 291 291 291 291 291 292 293 291 288 285 287 291 293 291 291 289 290 296
316 313 312 312 313 313 313 312 312 310 308 310 306 307 308 305 301 301 298 299 298 298 295 294 296 299 297 296 294 291 290 292 289 289 291 291 292 289 289 283 282 291 292 294 293 288 295
315 313 312 311 312 313 313 312 311 311 309 312 308 309 308 304 300 301 300 299 300 299 299 296 295 294 296 295 292 293 291 292 289 288 287 288 289 286 288 286 289 296 294 294 286 290 297
314 313 313 312 311 312 312 312 311 311 309 311 308 310 309 307 301 299 299 299 298 300 299 297 295 295 294 292 294 295 292 293 290 293 290 290 289 288 289 286 283 297 293 289 295 298 298
313 312 312 313 313 313 311 311 311 310 309 309 308 310 308 308 304 302 302 302 300 299 302 298 299 297 300 297 297 298 293 294 292 288 294 288 292 291 292 291 299 298 296 299 299 297 297

GFSGBSN_sfc_thetae_048.txt.gz
Theta_e
319 319 319 319 319 319 318 316 318 319 319 320 321 322 323 323 324 324 324 324 325 325 326 326 327 327 323 314 309 317 335 331 319 319 316 317 313 320 313 315 314 312 310 310 311 312 310
316 317 317 317 318 319 318 318 317 317 318 319 319 321 322 323 323 323 324 324 324 324 325 325 326 326 318 308 315 316 316 316 317 318 316 317 314 314 313 312 310 312 310 308 309 308 309
316 317 317 316 316 317 318 318 317 317 317 318 319 320 321 322 323 323 323 323 323 324 324 324 325 322 316 308 316 315 316 315 317 317 316 315 314 311 313 311 314 309 304 305 307 307 307
316 316 316 316 316 316 318 318 318 316 316 317 319 320 321 322 321 322 322 322 323 324 324 325 326 319 309 315 317 314 315 314 318 319 319 320 318 316 312 312 308 303 302 298 305 307 307
317 315 316 315 315 315 317 316 316 316 316 318 319 320 321 321 321 322 322 322 322 323 324 326 319 317 305 317 311 313 315 311 314 316 321 315 318 314 313 304 300 302 295 298 302 307 306
317 316 316 316 316 315 315 316 316 318 318 319 320 320 320 320 321 321 321 321 323 321 321 320 319 308 307 306 311 312 315 314 312 314 313 314 310 305 304 301 293 296 297 299 298 302 303
316 317 316 316 316 316 315 316 317 317 318 319 319 320 320 320 320 320 318 315 312 312 314 307 306 306 307 311 314 312 313 311 312 310 304 310 302 298 302 304 303 300 298 297 300 304 302
317 316 316 315 316 316 316 316 317 317 318 319 320 321 320 320 320 320 315 312 312 315 304 310 309 309 311 312 307 310 314 307 307 302 306 304 297 305 306 305 302 301 298 298 303 303 300
317 316 316 315 315 316 317 317 317 317 319 320 320 321 320 320 320 314 314 316 321 320 306 306 309 308 308 310 307 308 311 309 305 303 303 299 304 305 303 304 300 300 298 298 297 302 302
316 316 315 315 315 315 317 317 318 318 319 319 320 320 320 320 310 316 316 320 323 322 301 300 304 307 309 311 306 312 311 309 306 302 305 303 305 303 303 300 302 297 302 301 299 297 291
317 316 315 314 315 316 317 317 318 318 318 318 319 320 320 317 314 313 318 323 323 318 290 303 305 313 310 307 308 308 312 310 304 304 305 302 303 302 300 301 303 299 303 300 300 295 293
316 315 315 315 316 318 317 317 317 317 317 318 318 319 318 316 317 320 321 322 317 299 291 300 306 303 303 306 306 308 307 310 309 303 304 302 306 304 302 303 303 303 299 299 298 294 286
316 315 315 315 316 318 317 317 317 318 317 318 317 317 314 319 314 322 321 316 299 293 304 300 301 304 303 303 303 304 303 301 299 296 296 300 300 301 302 299 302 300 295 288 286 286 287
316 315 315 315 317 318 318 318 318 318 318 318 317 317 318 315 320 322 317 306 294 299 301 305 303 303 300 303 302 302 301 298 300 297 294 293 292 299 301 299 295 298 294 287 282 283 286
316 316 315 316 317 317 318 318 318 319 318 316 315 314 315 314 319 319 310 298 297 301 303 302 302 299 300 301 299 300 300 298 296 295 292 292 292 297 298 299 298 295 290 295 288 289 285
316 316 315 315 316 316 317 317 317 318 317 315 312 312 313 313 318 314 306 300 300 301 302 303 298 301 298 299 296 298 298 298 296 295 296 294 288 296 295 297 297 294 296 288 288 282 280
316 316 315 315 315 315 315 315 316 317 316 314 310 307 308 314 314 309 299 299 299 301 303 300 300 300 300 299 299 298 295 297 298 295 296 294 291 290 293 292 293 291 289 290 289 287 281
316 316 315 315 314 314 314 314 315 316 314 310 313 301 310 313 303 306 302 300 297 299 301 300 300 300 299 299 298 298 295 297 298 297 294 293 290 287 291 293 295 293 292 291 285 285 287
317 316 315 314 314 314 313 313 313 315 311 313 308 305 310 310 298 300 300 298 299 298 299 298 298 298 299 298 294 296 296 298 298 296 293 294 289 285 286 290 292 289 292 292 290 288 284
317 317 316 314 314 315 313 313 310 308 309 307 305 300 304 306 306 300 299 298 295 298 298 297 296 297 296 294 296 294 295 296 297 297 295 295 291 288 285 287 291 288 291 292 288 282 284
317 317 316 314 314 315 314 312 311 309 309 308 307 305 301 298 299 300 301 299 296 293 296 297 294 295 295 292 292 292 295 294 295 298 295 293 288 290 291 292 291 290 289 290 287 288 283
316 317 317 315 314 314 313 312 311 310 307 308 304 303 302 300 299 299 295 296 295 293 294 293 293 295 295 292 292 292 295 294 294 295 294 294 288 290 287 292 289 287 289 289 289 290 289
315 315 316 315 314 314 314 312 311 310 308 311 307 306 305 298 300 299 299 297 296 295 295 296 296 295 293 293 295 295 295 295 294 294 293 292 289 286 284 289 289 285 290 291 290 292 290
314 314 315 315 314 314 314 314 312 311 309 314 309 309 306 299 301 300 298 298 296 296 294 295 297 296 296 299 298 296 295 295 294 294 294 291 289 287 283 286 279 290 294 293 292 292 292
314 313 313 314 314 313 313 313 312 311 310 311 310 309 309 302 302 299 298 297 295 296 295 295 295 297 299 297 293 290 289 290 291 293 292 292 289 285 281 282 288 290 290 290 287 287 294
315 313 312 312 313 313 313 313 312 312 310 311 308 309 308 305 299 302 299 299 296 296 294 294 296 299 298 295 293 288 288 291 287 288 291 291 290 285 284 278 277 289 291 294 292 282 295
316 314 312 311 312 313 313 312 312 312 311 315 309 311 310 304 300 300 299 298 302 300 296 295 294 294 297 293 289 291 289 292 286 287 284 285 284 281 283 282 286 294 293 294 281 285 294
315 313 312 311 311 312 312 312 312 312 312 312 308 310 309 306 300 301 301 299 299 299 297 295 294 294 292 290 292 292 290 290 288 290 288 286 285 284 284 281 279 294 291 286 291 294 295
314 314 313 312 312 311 311 311 311 311 311 311 308 310 308 307 301 303 302 302 300 300 298 298 297 297 298 294 295 296 291 291 289 285 292 285 289 286 288 288 295 295 294 297 296 293 293

GFSGBSN_sfc_thetae_051.txt.gz
Theta_e
318 318 318 318 319 319 320 318 318 320 320 321 322 322 323 323 323 324 324 324 325 325 325 326 326 328 320 312 308 314 335 333 324 320 315 314 309 308 306 306 307 304 305 307 307 308 306
316 317 317 316 316 317 319 319 317 319 319 319 320 320 321 322 323 323 324 324 324 324 325 325 326 326 315 306 311 312 315 314 316 318 313 311 308 308 306 305 304 306 306 305 306 305 306
316 316 317 317 316 317 317 318 318 317 317 318 319 320 321 322 323 323 323 323 323 323 324 325 325 319 314 309 310 309 313 311 315 317 315 313 311 306 306 304 308 304 299 301 302 303 303
317 317 316 316 316 316 317 317 318 317 316 317 318 319 320 321 322 322 322 322 323 324 323 325 326 316 308 312 309 311 312 312 315 316 318 315 314 311 307 305 303 298 296 292 299 303 304
317 316 317 316 316 315 316 316 317 316 316 317 318 319 320 321 322 321 322 322 322 323 324 325 317 312 301 316 308 310 311 311 312 313 315 314 315 308 305 297 293 294 288 291 297 303 302
316 316 317 316 317 316 315 316 316 317 317 317 318 319 321 321 321 321 321 321 321 321 321 318 317 306 306 304 309 310 310 313 310 311 311 310 304 298 298 294 287 290 290 292 294 300 300
317 318 317 316 316 316 316 316 316 317 318 319 319 320 321 320 320 320 317 311 307 306 311 305 305 303 304 308 310 307 311 310 309 305 298 304 296 292 295 298 298 295 292 291 294 301 298
318 318 316 316 315 315 317 317 317 318 318 318 319 320 320 321 321 319 312 309 308 308 300 308 307 306 308 308 304 307 311 303 303 297 300 297 292 299 303 301 299 297 293 293 297 301 297
318 317 317 316 316 316 316 317 317 317 318 319 319 320 321 321 319 312 310 312 316 314 299 305 308 305 306 308 305 304 308 304 300 298 297 293 300 304 302 299 298 296 293 293 293 298 298
317 317 316 315 315 316 316 318 318 318 319 320 320 321 321 320 308 311 308 316 317 315 292 298 303 306 307 309 304 310 308 306 302 296 299 297 302 301 299 298 298 292 299 299 297 292 286
317 316 315 315 315 317 317 318 318 318 319 319 319 319 320 317 309 310 314 316 314 310 284 300 303 311 307 304 305 307 309 306 300 299 297 294 298 297 297 299 300 296 300 297 296 290 287
316 316 314 314 316 317 318 318 318 319 318 318 317 318 318 313 310 313 315 314 310 293 287 299 303 301 300 303 303 307 305 305 304 299 299 298 302 299 298 301 300 300 296 294 293 289 282
315 315 315 314 315 318 318 318 318 319 318 317 316 317 315 317 309 314 314 308 291 286 301 297 298 301 299 298 300 301 299 295 293 289 288 295 296 298 300 295 298 296 289 282 282 282 282
316 315 314 314 316 318 318 319 319 319 319 317 315 316 315 314 311 313 309 298 287 296 297 303 302 301 297 299 298 299 297 293 293 291 288 288 287 294 298 294 291 293 290 283 279 280 282
317 316 315 315 316 317 318 319 319 319 318 316 314 307 309 307 311 309 302 290 290 296 301 300 300 295 295 298 296 296 293 292 290 290 286 285 287 294 295 295 294 290 285 289 284 282 279
316 316 315 315 315 316 316 318 319 319 317 314 303 303 304 307 309 306 297 294 293 299 300 300 294 296 292 294 292 292 292 294 292 293 290 287 282 292 293 294 294 290 292 285 284 278 276
316 316 315 315 314 315 315 316 318 318 316 314 301 298 301 305 305 300 291 291 296 299 301 297 295 296 295 294 292 291 291 294 296 293 291 287 285 285 289 287 288 287 285 286 285 283 278
317 316 315 314 314 314 314 314 316 316 314 308 301 293 301 304 296 294 292 295 298 298 299 298 296 296 293 293 291 291 291 292 295 293 289 288 285 282 285 288 291 289 287 286 281 280 281
317 316 315 314 314 313 313 313 315 314 311 303 299 294 300 302 290 289 292 295 296 296 296 296 295 296 294 292 288 291 293 296 294 293 289 289 283 279 282 287 289 284 287 288 285 283 279
317 317 315 315 314 314 313 313 310 313 310 301 295 291 294 296 294 292 291 292 291 295 295 295 293 293 291 289 291 289 291 294 294 295 295 292 285 283 280 282 286 283 288 288 285 276 279
316 317 316 315 314 314 312 312 310 309 307 301 295 293 293 289 292 290 291 293 291 290 292 292 290 291 290 286 288 287 291 291 292 297 292 289 284 285 287 289 288 287 287 287 284 284 280
314 317 316 315 315 314 313 312 311 309 306 298 294 293 292 290 291 289 290 288 291 290 290 289 289 292 288 286 287 287 290 289 289 291 289 288 283 285 283 288 287 285 287 287 287 287 285
313 315 316 315 315 314 315 313 312 311 306 297 296 296 297 292 290 290 289 290 292 291 291 292 291 289 289 290 290 289 289 290 290 290 288 287 284 281 278 286 286 281 287 288 287 288 287
314 313 314 315 314 314 314 314 313 311 310 305 299 299 295 292 292 293 294 294 292 291 290 292 292 290 292 293 292 291 290 290 290 289 290 286 284 282 276 281 275 285 290 290 289 289 290
315 313 312 314 314 313 313 313 314 313 311 302 301 302 299 293 294 293 294 291 291 291 290 291 292 292 293 290 287 285 284 285 287 289 287 287 284 279 275 274 282 286 287 287 285 285 291
315 314 312 312 313 313 313 314 314 313 311 304 301 301 300 296 292 295 293 292 288 287 288 290 292 293 291 290 287 280 281 285 282 284 288 288 285 280 278 272 272 285 288 291 289 278 291
317 314 312 312 312 312 312 312 312 313 312 305 301 304 302 292 292 294 293 292 295 291 289 289 289 289 291 286 283 281 282 287 281 282 279 280 279 276 275 273 280 289 290 291 278 281 292
317 315 313 311 312 311 311 311 312 313 313 305 300 303 303 293 293 297 297 293 293 292 289 290 289 289 286 283 282 284 280 285 283 285 283 281 277 277 277 274 276 291 289 284 287 290 291
316 314 313 312 312 311 311 310 310 311 312 310 298 303 304 298 295 298 299 299 297 296 293 291 292 290 290 286 286 285 283 283 284 278 287 281 286 282 283 282 291 291 290 291 292 290 290

GFSGBSN_sfc_thetae_054.txt.gz
Theta_e
318 317 317 318 317 318 319 320 319 319 320 321 322 322 322 323 323 324 324 324 324 325 325 325 326 327 317 310 312 312 336 333 323 319 315 313 308 308 304 305 305 303 304 307 306 306 305
317 317 317 317 317 316 318 319 319 319 319 320 320 320 321 322 322 323 324 324 324 324 324 325 325 327 313 305 310 312 312 312 316 320 313 313 307 308 304 304 303 305 305 304 305 304 304
317 317 316 317 316 316 318 318 318 318 318 318 319 320 321 321 322 323 323 323 323 323 323 324 324 321 313 310 309 308 311 309 313 317 315 314 312 306 305 303 306 304 299 300 301 302 302
317 317 317 317 316 315 316 317 318 317 317 317 318 319 320 321 322 322 322 322 323 323 323 324 325 317 307 314 308 309 311 310 314 315 316 315 314 309 305 305 301 297 296 291 297 301 302
316 316 316 316 316 316 315 316 317 317 317 317 317 318 319 321 321 322 322 322 322 322 323 324 317 311 304 315 306 308 310 309 311 311 313 313 313 306 303 296 292 293 287 290 294 302 301
316 316 317 317 316 316 315 315 316 316 317 316 317 318 318 321 321 321 321 321 320 320 320 318 317 305 307 303 307 309 308 311 308 308 309 307 303 298 297 293 286 288 288 291 291 298 299
318 317 317 316 316 315 316 316 315 316 317 318 318 318 320 320 320 320 315 309 305 305 309 303 305 303 303 306 309 306 310 309 307 303 297 302 296 291 293 297 295 294 291 291 293 300 297
319 316 316 316 316 315 315 316 316 316 317 318 318 319 320 320 320 319 312 307 307 305 299 308 307 305 306 306 303 305 309 301 301 296 299 295 292 296 301 300 298 295 292 291 296 300 296
318 317 316 316 315 316 316 316 317 318 318 318 319 320 320 321 319 312 307 310 313 312 297 303 306 303 304 306 303 303 306 303 298 296 295 292 298 302 300 298 297 295 292 291 292 296 295
317 316 316 315 315 316 316 316 318 318 318 319 320 320 320 320 307 307 304 312 313 311 291 296 301 304 304 308 302 308 306 304 300 295 297 295 300 300 297 296 296 290 298 297 296 291 286
317 316 315 314 315 316 317 317 318 318 319 319 319 319 319 317 309 308 312 313 312 306 283 298 301 309 304 303 304 305 307 304 298 298 296 293 296 296 296 297 298 294 299 295 294 288 286
316 316 315 314 315 316 318 318 318 318 319 319 318 318 318 313 308 310 313 312 307 290 285 296 302 299 298 301 302 305 302 303 302 297 296 295 300 298 297 299 298 299 294 292 290 287 281
316 315 314 314 315 317 318 318 318 318 319 318 317 318 314 315 307 312 311 305 287 286 298 295 296 299 297 296 298 299 297 293 291 288 287 293 295 296 298 293 296 294 287 280 280 281 281
316 315 314 314 314 318 318 318 318 319 319 318 315 316 314 313 310 309 306 297 285 294 295 301 300 298 294 298 296 297 295 290 291 290 287 287 286 293 296 293 291 291 288 282 279 279 282
317 316 315 314 315 317 318 318 319 319 318 316 314 305 306 307 311 308 300 289 289 293 298 298 298 293 293 296 296 294 291 289 289 288 286 284 287 293 294 293 293 289 285 288 283 280 278
317 316 315 315 315 315 316 318 318 318 317 314 302 301 302 306 307 304 296 293 291 297 298 299 292 295 291 292 291 290 290 292 291 291 289 285 282 290 292 293 292 288 291 284 282 276 276
317 316 315 315 314 314 315 316 319 318 316 313 299 297 303 304 304 299 289 290 294 298 299 296 294 293 293 292 291 289 290 292 294 291 289 286 284 283 287 286 286 286 284 284 284 281 277
317 317 315 314 314 313 314 315 317 317 314 306 299 292 300 303 294 290 291 293 298 296 297 296 295 294 292 292 289 289 290 291 293 292 287 286 284 281 283 287 289 288 285 284 280 279 278
316 317 315 315 314 313 313 314 315 314 311 302 297 292 298 301 289 287 290 293 295 295 294 294 293 294 292 290 286 290 291 294 293 292 288 287 281 278 281 286 288 283 285 286 284 281 278
315 316 315 315 314 313 313 312 313 314 312 300 293 290 293 294 292 290 290 290 290 293 294 292 291 292 290 288 289 288 289 293 293 294 296 291 283 282 280 282 285 283 286 286 283 275 278
314 316 315 315 314 313 312 312 310 314 311 300 293 292 291 287 290 289 290 292 289 288 291 290 288 290 288 285 286 287 290 289 291 296 290 287 281 283 285 287 287 286 286 286 283 282 280
314 315 315 315 315 314 313 311 311 309 307 297 293 291 289 288 289 289 288 289 289 289 288 288 287 290 287 286 286 286 290 288 287 289 287 287 281 283 282 287 286 285 286 287 285 285 284
315 314 315 314 314 314 315 313 311 310 306 295 295 293 293 291 287 288 287 289 290 290 289 291 290 288 287 288 289 288 288 288 290 288 287 286 283 280 278 284 284 279 285 286 286 286 285
315 314 314 314 313 313 314 315 313 311 307 302 297 296 294 291 291 291 292 292 290 290 289 290 291 289 291 292 291 289 289 289 289 288 289 285 283 281 275 280 274 283 288 288 287 288 288
316 315 313 314 313 312 313 313 313 312 310 300 298 299 296 290 291 292 292 290 290 290 289 290 291 291 292 290 286 284 284 285 286 287 286 286 283 278 274 273 280 284 285 285 284 284 289
317 315 313 313 312 312 313 313 313 312 310 301 299 299 299 292 290 293 290 289 287 286 288 289 291 291 291 288 286 279 280 283 281 283 287 286 283 280 276 271 271 282 287 289 288 278 289
318 315 313 313 312 312 311 312 312 312 311 303 299 301 298 291 291 292 290 290 291 289 287 286 287 287 290 285 282 281 282 287 281 281 279 280 278 276 275 272 278 287 290 290 278 279 289
318 316 314 312 312 311 310 310 311 312 312 302 299 301 299 291 291 295 296 292 292 290 288 288 288 287 285 282 281 282 279 285 282 283 281 280 276 275 275 273 275 291 287 284 286 288 289
318 317 314 312 312 311 310 309 310 312 312 305 295 300 301 295 292 296 297 296 295 294 291 289 290 288 288 284 284 284 283 282 283 278 285 281 284 281 282 281 289 289 288 291 290 289 288

GFSGBSN_sfc_thetae_060.txt.gz
Theta_e
318 318 318 317 317 317 317 317 319 320 320 319 320 322 322 322 323 323 324 324 324 325 325 324 324 325 315 307 308 319 338 335 325 318 315 316 310 307 303 303 303 301 303 304 304 304 302
318 317 318 317 316 318 317 316 318 319 320 320 320 320 321 321 322 322 323 323 324 324 324 324 324 324 308 302 312 309 310 311 315 316 314 314 309 307 304 303 301 302 302 301 303 302 302
319 317 316 318 317 317 317 315 318 318 319 319 319 320 320 321 321 322 322 323 323 323 323 323 323 319 309 308 311 304 308 306 313 315 312 316 314 309 304 302 304 302 298 297 299 300 299
318 318 317 318 318 317 317 317 317 318 318 319 319 318 319 320 320 321 322 322 322 322 322 323 324 313 305 317 312 306 307 306 314 316 315 319 314 308 305 303 299 296 294 291 295 299 299
319 318 318 318 318 318 318 318 316 317 317 317 317 317 317 319 319 319 321 321 322 322 322 323 312 307 303 316 303 305 306 305 309 310 312 315 312 304 302 296 292 292 289 289 292 299 298
318 318 319 319 318 317 317 316 317 316 317 317 316 316 317 318 318 319 321 321 320 319 317 319 314 303 305 299 304 306 305 308 305 306 306 305 300 299 295 293 289 289 288 289 289 294 296
317 319 319 318 317 317 316 316 316 316 316 316 317 316 317 317 318 320 315 305 300 302 306 302 304 303 302 306 307 305 308 306 304 301 294 299 293 292 300 296 293 291 290 289 291 295 294
318 318 318 318 317 317 315 315 315 316 315 315 316 317 317 318 319 319 310 301 302 303 298 305 307 307 307 307 302 304 307 300 298 293 296 294 290 294 297 297 296 293 290 289 293 297 295
318 319 318 318 317 316 315 315 315 316 316 316 318 318 318 318 318 311 306 303 312 306 295 301 306 302 304 306 302 300 305 301 298 293 293 291 294 299 298 295 294 292 289 289 290 294 293
318 318 317 317 315 315 315 315 316 315 318 318 318 319 319 319 308 305 305 308 309 306 289 294 299 303 304 306 301 306 304 302 297 293 293 293 297 297 295 294 294 288 295 295 293 290 285
317 318 317 316 314 314 315 317 317 316 318 319 319 319 320 316 305 308 311 310 309 303 281 296 299 306 304 301 300 303 306 303 296 295 294 290 294 294 293 294 295 292 296 293 292 287 285
317 317 317 315 314 314 315 317 318 318 318 319 319 319 318 315 311 310 310 308 303 289 281 293 299 298 299 300 300 301 300 301 299 294 294 293 297 295 294 296 296 296 291 289 288 286 280
316 317 316 315 314 314 315 317 318 318 318 319 318 318 316 311 308 308 307 299 288 285 295 292 294 297 295 295 295 296 293 290 289 284 285 290 292 293 296 292 294 291 287 281 279 280 279
316 316 315 315 314 314 314 318 318 318 318 318 316 317 314 314 308 308 303 296 284 291 291 298 295 294 291 295 293 294 291 288 288 288 285 285 284 290 293 290 288 287 286 280 277 278 280
316 316 317 316 315 314 315 318 318 318 318 316 314 305 305 306 308 305 297 286 287 290 295 295 294 289 289 293 293 292 288 288 286 286 285 283 283 290 291 291 291 287 284 286 281 278 277
316 316 317 316 315 315 316 317 318 319 317 314 301 299 301 303 306 301 294 291 289 294 295 295 289 291 288 289 289 289 287 289 288 288 287 284 281 287 290 291 290 287 289 282 280 276 274
316 316 317 316 315 315 315 316 318 319 317 311 298 297 301 300 302 296 287 289 292 295 296 293 291 291 290 289 289 287 288 290 291 288 287 283 283 281 285 284 284 285 283 282 281 279 277
316 315 316 317 316 314 314 315 317 319 315 304 295 292 298 301 293 288 290 291 297 294 295 294 293 292 291 289 287 286 288 288 291 289 284 284 282 279 281 284 287 285 283 283 279 276 276
316 315 315 316 316 314 313 315 317 316 310 299 295 291 296 300 288 288 288 291 293 293 291 292 291 292 290 288 285 288 288 291 291 289 285 285 280 277 279 283 285 281 283 283 281 280 277
316 314 314 316 316 315 313 314 316 316 311 298 291 288 291 292 289 289 287 288 288 291 291 290 289 289 287 285 288 287 286 290 291 291 298 289 280 280 278 280 283 280 283 283 281 274 276
316 315 315 315 315 314 313 313 316 316 313 299 290 289 289 287 289 288 288 288 287 287 289 288 286 287 286 283 284 285 287 286 289 295 287 284 279 279 282 283 283 283 284 283 281 280 279
316 315 315 315 315 314 314 313 315 315 311 297 292 290 287 285 287 287 289 287 288 286 286 286 285 287 284 284 283 285 287 284 284 287 284 284 280 281 279 284 284 283 285 284 283 282 281
317 316 315 314 316 314 314 312 312 314 306 295 291 291 291 288 285 286 286 288 289 288 287 288 287 286 285 286 287 286 287 287 288 286 284 283 282 280 278 281 282 280 282 284 283 283 283
318 317 315 315 316 315 313 314 312 312 306 298 294 293 291 288 286 288 288 288 287 287 287 288 288 286 288 288 288 288 288 287 287 285 286 283 281 280 275 278 274 281 285 285 284 285 285
318 318 315 315 315 315 312 312 314 313 310 300 297 297 294 288 289 288 289 287 288 287 287 287 288 288 289 288 285 283 284 283 284 285 284 284 281 277 274 272 278 280 283 284 282 283 287
318 318 317 315 315 315 313 312 313 313 311 298 297 298 296 291 289 289 288 287 285 284 285 287 289 289 290 287 285 279 280 282 281 282 285 283 282 279 275 270 270 279 284 287 286 279 288
318 318 317 316 315 314 313 312 312 312 311 300 297 298 295 290 288 289 288 288 288 286 285 285 286 286 287 284 282 279 281 284 280 280 279 278 276 275 275 271 278 283 286 288 278 280 288
317 318 318 317 315 314 313 311 311 312 312 301 297 298 296 289 290 293 293 289 289 288 287 286 287 286 285 282 281 281 278 283 280 281 280 279 275 274 274 272 274 287 286 283 285 286 287
317 317 318 317 315 314 313 311 309 311 312 303 297 299 296 293 291 294 293 293 292 292 289 286 288 285 288 283 281 280 280 279 281 277 281 279 282 279 279 279 285 287 285 287 287 287 286

GFSGBSN_sfc_thetae_063.txt.gz
Theta_e
319 317 317 319 319 317 317 317 317 318 319 321 319 321 322 322 322 323 323 324 324 324 324 324 324 325 315 308 305 316 341 342 330 320 317 317 313 313 309 308 308 307 307 306 307 306 305
319 319 316 317 318 319 318 317 317 318 319 320 320 320 321 321 322 322 323 323 323 324 324 323 323 324 311 299 314 311 314 318 317 317 315 317 313 313 309 307 308 306 305 305 306 305 305
319 317 318 317 319 319 318 318 317 317 319 319 320 319 320 320 321 321 322 322 323 323 323 323 323 319 310 304 318 311 308 309 314 317 313 316 317 312 312 306 308 305 303 303 303 304 303
318 317 317 318 318 317 318 318 318 317 318 318 318 319 318 319 320 320 321 321 321 322 322 323 323 317 301 316 318 313 308 310 317 319 317 318 319 314 309 308 302 300 300 300 300 303 303
317 318 318 318 320 319 318 318 318 316 317 318 318 318 319 318 320 318 319 320 321 322 322 322 316 310 303 318 306 307 309 308 311 314 316 317 315 308 307 300 298 297 297 295 298 302 302
317 318 319 320 319 318 318 317 317 317 317 317 317 317 316 317 317 318 320 320 320 320 317 318 315 304 306 301 306 307 310 309 308 312 310 308 305 301 298 299 295 296 293 293 295 298 300
319 318 319 319 317 318 317 317 317 316 316 316 317 317 316 316 317 317 315 306 300 302 307 300 304 304 303 306 309 307 311 308 308 305 300 302 299 296 300 301 298 297 295 294 295 298 298
318 318 319 318 318 317 316 316 315 315 315 315 316 317 318 318 317 318 311 300 302 306 299 306 305 306 309 309 303 305 309 302 303 297 301 299 295 300 302 300 299 297 294 294 296 299 298
317 318 318 317 317 316 316 315 315 315 315 315 316 317 318 317 317 313 307 303 311 307 299 301 305 305 305 308 303 303 307 303 299 298 298 294 298 300 299 297 296 296 294 294 294 296 296
317 318 318 317 316 314 314 315 315 315 315 316 317 318 318 319 310 306 304 310 311 307 291 295 300 304 307 308 302 307 308 304 301 296 297 297 300 298 297 296 297 293 298 297 296 294 290
316 318 318 317 315 314 314 315 316 316 315 317 319 318 319 318 305 308 312 311 311 305 282 297 301 309 307 302 303 303 307 305 299 297 298 295 297 297 297 297 298 295 298 296 294 291 291
317 317 317 316 315 313 313 315 316 318 318 318 319 318 318 315 312 311 311 308 307 292 283 295 301 299 300 302 302 303 302 302 302 297 298 297 300 298 298 297 298 297 293 292 291 289 285
317 317 316 315 314 313 313 314 316 318 318 319 319 319 317 313 306 309 307 303 291 287 296 292 295 297 297 298 298 298 294 292 292 290 291 294 295 297 299 295 297 294 292 287 284 284 283
317 317 317 316 315 314 314 313 317 318 318 319 317 317 315 315 311 311 304 296 286 292 292 298 297 296 293 297 296 296 295 290 291 291 288 287 287 294 295 295 293 292 292 286 281 282 284
317 317 317 317 316 315 314 315 318 318 318 317 314 306 307 307 308 307 299 287 288 292 295 296 296 292 293 295 295 293 291 290 290 291 289 288 288 293 293 294 295 291 289 290 284 282 282
317 317 317 318 316 315 315 316 317 318 318 314 302 299 301 302 306 301 294 292 291 294 296 297 290 293 290 292 292 292 291 292 291 291 292 289 285 290 292 294 293 293 292 287 285 281 279
317 317 316 317 317 315 314 315 317 319 317 311 297 296 301 299 302 296 288 289 293 296 297 295 293 292 292 291 291 290 290 292 292 291 291 288 288 287 290 290 289 289 287 285 286 284 282
317 317 316 316 317 315 314 314 316 319 315 303 296 293 299 301 294 288 290 292 297 294 295 295 294 294 293 291 290 289 290 291 292 292 288 288 286 283 286 288 291 290 288 287 285 282 281
318 317 316 316 317 316 314 314 316 317 310 298 294 293 297 300 289 288 290 292 293 293 291 293 292 293 292 289 288 290 290 292 293 291 289 288 284 281 284 287 289 287 287 285 284 284 281
318 317 317 315 316 316 314 313 315 316 312 297 291 289 292 293 290 291 289 289 289 292 292 291 290 291 290 288 290 288 288 291 293 293 297 291 283 283 282 286 287 285 285 286 286 283 282
319 317 317 316 315 316 314 313 315 316 313 298 290 289 289 288 291 289 290 290 288 288 290 289 288 289 289 285 286 287 289 288 291 295 289 287 283 284 285 286 286 286 286 284 284 284 284
318 318 317 316 315 316 314 313 314 315 312 298 291 290 287 285 287 288 289 288 289 287 288 288 287 288 286 286 287 287 288 286 287 289 287 287 284 285 284 286 286 285 286 286 285 285 284
319 318 318 317 314 316 315 313 313 314 307 296 292 291 291 287 285 287 287 289 290 288 287 289 288 287 286 287 288 288 288 288 289 288 286 286 284 284 284 283 284 283 285 286 287 286 287
319 319 318 317 315 315 316 313 313 313 306 297 293 293 290 287 286 287 288 289 288 287 287 289 288 287 288 290 290 290 289 288 288 286 287 285 284 283 282 282 278 286 289 289 287 288 288
313 319 318 318 316 316 316 313 314 313 312 299 296 295 292 289 288 288 289 288 288 287 287 288 288 288 289 289 286 285 285 286 286 285 285 286 284 280 281 279 281 283 286 287 286 286 290
312 318 319 318 317 316 316 314 313 314 311 300 297 299 296 292 290 290 289 288 287 286 286 287 290 291 291 288 287 283 283 284 283 284 286 285 284 283 279 276 275 283 287 290 290 283 289
311 314 318 318 317 316 315 315 312 313 311 301 298 300 297 292 290 289 288 288 289 287 285 286 287 288 289 285 284 283 283 286 283 282 281 281 280 280 279 278 281 285 289 290 283 285 290
310 311 313 318 317 317 315 314 313 312 313 301 297 299 298 290 290 292 293 288 289 288 286 287 287 287 285 284 284 283 282 284 282 283 282 282 279 278 278 277 277 289 288 286 289 290 290
310 309 312 317 317 317 315 314 313 312 311 304 296 298 296 293 291 293 293 294 293 292 289 286 289 286 288 285 284 282 283 282 282 280 284 282 284 282 282 283 287 289 290 291 290 290 290

GFSGBSN_sfc_thetae_066.txt.gz
Theta_e
316 318 316 317 317 318 318 318 317 317 319 319 321 320 321 322 322 322 323 323 324 324 324 324 324 324 318 307 306 317 338 344 330 322 317 321 318 316 312 313 313 313 312 312 312 311 312
318 318 317 317 318 318 319 318 318 317 318 320 320 320 320 321 321 322 322 323 323 323 324 324 323 323 311 301 314 318 319 325 321 319 318 321 320 317 313 310 309 311 312 310 310 310 310
317 317 317 317 317 318 318 318 318 318 317 318 319 320 320 320 320 321 321 322 322 323 323 323 323 319 309 306 317 321 316 314 318 318 317 319 320 316 313 309 310 309 307 308 309 310 308
317 318 318 318 317 318 318 319 318 318 316 318 319 319 319 319 319 320 320 320 321 321 322 323 323 317 304 314 319 319 318 313 319 320 319 321 321 316 312 311 306 305 307 304 306 307 307
319 318 318 319 319 318 318 318 318 317 317 317 318 318 318 319 318 319 319 319 321 322 322 322 317 311 302 320 313 316 314 311 317 318 319 319 319 314 309 307 303 302 304 306 305 307 306
320 318 318 319 320 317 317 317 318 317 317 317 317 318 317 317 317 317 318 319 321 320 318 318 315 308 310 306 310 311 314 315 312 314 312 312 313 312 309 306 301 299 299 302 306 304 304
320 319 320 320 317 317 316 317 317 316 317 316 317 318 317 317 317 317 317 314 305 306 309 302 305 306 308 313 313 310 313 312 313 311 306 308 310 308 310 309 308 306 302 301 300 302 302
319 318 320 319 316 317 316 316 315 315 316 315 316 317 318 317 317 317 316 306 305 309 303 309 305 306 310 313 305 309 313 306 306 304 307 304 303 312 310 304 302 301 299 300 300 302 302
318 318 319 318 316 316 315 315 315 315 315 316 315 316 317 316 316 315 312 309 314 312 304 304 308 305 307 310 305 305 310 307 303 302 304 307 306 303 303 303 304 302 300 300 297 300 301
319 318 319 319 316 315 314 314 315 314 315 315 316 317 317 318 312 313 308 313 316 314 298 298 303 306 309 311 304 309 311 307 303 300 302 302 303 302 301 300 301 298 300 300 298 297 294
318 319 319 318 316 314 313 313 314 315 315 316 317 317 318 318 312 311 315 316 315 310 287 300 303 312 310 306 306 305 309 309 302 301 302 299 301 301 300 300 301 299 302 300 298 298 296
318 319 319 318 316 314 314 314 315 316 317 316 317 318 318 316 314 315 316 313 310 297 287 297 303 302 303 305 304 305 305 308 307 303 303 301 303 303 301 301 302 302 300 299 298 297 291
318 319 318 318 318 315 314 314 315 316 317 319 318 318 317 317 313 316 314 307 297 289 298 295 297 300 301 300 301 301 300 300 299 295 296 300 299 301 303 300 301 300 298 292 290 290 289
318 318 318 317 318 317 315 314 314 317 318 319 318 318 318 317 318 316 309 303 290 295 296 301 299 299 297 300 299 299 298 296 297 298 297 295 292 298 299 299 298 298 298 292 285 288 291
318 318 318 317 318 317 317 315 315 318 318 318 316 316 314 314 316 315 305 295 295 297 298 298 299 295 296 298 299 298 298 296 295 297 296 294 292 296 297 299 299 296 295 296 291 290 289
319 318 318 318 318 317 316 317 317 318 318 315 312 309 310 310 315 308 303 296 297 298 299 299 293 296 293 296 297 297 296 296 294 295 297 296 291 294 295 298 298 298 298 292 294 286 285
319 319 318 318 317 318 316 316 317 319 318 312 308 305 308 308 311 306 298 297 298 299 299 299 297 297 297 296 297 296 295 295 296 294 296 296 295 291 294 295 295 294 294 293 293 291 287
320 319 318 318 317 317 316 315 316 319 315 309 307 299 306 309 302 302 299 298 298 298 300 299 300 299 298 297 296 295 295 295 295 295 294 293 296 292 291 292 294 295 294 295 291 288 290
321 320 319 318 317 316 317 315 315 317 312 310 304 305 306 308 298 298 299 296 297 297 296 297 297 297 297 295 294 295 295 294 296 295 294 295 292 289 288 291 293 292 293 293 292 293 290
322 321 319 318 317 316 316 315 315 316 313 309 304 299 301 304 301 299 297 297 296 296 296 296 296 296 296 294 296 294 293 294 296 298 296 296 292 290 290 291 293 290 290 292 293 290 291
321 321 319 318 316 315 315 316 315 315 314 306 303 300 299 297 299 299 298 297 295 294 296 295 294 295 295 292 293 293 293 292 295 297 294 294 290 290 290 290 291 291 291 290 290 293 289
316 317 320 318 318 316 315 316 315 315 311 305 303 300 297 297 295 298 296 297 295 294 295 294 293 293 293 294 295 293 294 293 293 294 293 293 291 291 289 290 290 289 292 291 291 291 290
316 314 320 319 318 317 315 316 314 314 310 307 305 302 300 293 295 297 298 298 297 295 293 294 294 294 293 293 295 296 296 296 296 294 292 292 292 291 290 289 290 289 292 292 292 293 293
315 314 315 319 319 317 315 316 315 313 312 307 305 304 300 296 294 296 295 296 295 294 293 293 294 295 294 298 299 299 297 296 295 294 295 293 293 293 292 289 283 289 293 293 293 293 294
314 314 312 317 319 318 316 316 316 314 313 307 305 303 301 297 295 294 294 294 294 294 293 293 294 295 298 296 294 292 293 292 291 291 292 294 294 290 289 287 290 289 289 290 290 291 295
312 313 312 313 316 317 316 315 316 314 313 312 307 307 306 302 298 296 294 295 294 294 293 292 294 297 298 297 296 292 291 292 289 289 291 292 293 292 288 287 285 288 292 294 295 288 295
311 312 312 311 314 316 317 316 316 314 313 311 309 308 305 301 297 295 295 294 296 295 294 293 293 293 296 296 294 294 293 292 290 289 287 289 289 288 288 287 289 293 294 295 286 290 296
310 312 312 310 310 312 317 317 316 314 314 309 307 306 305 301 297 297 297 295 295 298 296 294 294 293 294 293 294 295 293 293 291 291 289 289 288 287 287 286 284 294 292 291 295 296 297
310 311 311 309 310 310 312 316 316 315 313 311 303 305 304 303 297 298 298 298 298 297 298 295 297 295 298 296 295 295 293 292 292 289 291 288 292 292 291 292 293 296 295 296 297 297 296

GFSGBSN_sfc_thetae_069.txt.gz
Theta_e
318 319 319 318 318 317 318 319 319 318 318 319 320 321 321 322 322 323 323 323 324 324 324 325 324 324 319 309 307 317 333 338 331 324 319 320 321 319 315 317 319 315 317 316 317 315 315
319 319 318 318 317 318 319 319 319 319 317 318 320 320 321 321 321 322 322 323 323 324 323 324 324 323 315 303 316 317 318 326 327 322 319 321 324 325 317 314 313 315 315 313 313 313 314
318 318 319 318 319 318 318 318 318 319 318 317 319 319 320 320 320 321 321 322 322 322 322 323 324 320 311 308 317 321 319 315 322 322 319 322 327 321 321 314 314 313 310 311 312 312 312
319 319 319 319 319 319 320 320 319 318 318 317 318 319 319 319 319 319 320 320 320 321 322 323 323 317 307 317 318 315 317 317 316 319 322 324 324 324 318 315 311 310 312 306 310 309 310
321 320 319 319 320 321 318 318 319 318 317 317 317 318 318 317 318 318 319 319 320 321 323 322 317 313 305 320 312 315 318 312 316 318 321 323 322 318 315 311 308 308 306 308 310 311 310
320 320 320 320 320 318 317 317 317 318 317 317 317 317 317 317 317 318 319 319 321 321 320 318 315 307 310 307 314 315 318 314 314 316 314 316 317 313 312 310 302 306 306 309 308 312 307
320 319 320 320 319 317 317 317 317 316 316 317 316 317 317 317 317 318 317 317 310 309 310 305 306 305 309 314 313 310 313 313 314 313 309 312 310 307 312 313 312 310 309 307 308 303 302
319 319 319 320 319 318 317 316 316 315 316 316 315 316 317 317 318 318 316 310 309 311 303 311 308 307 310 311 306 309 314 308 308 305 312 307 306 313 316 314 311 308 307 307 307 303 302
319 319 319 320 319 317 317 316 316 316 315 316 315 315 317 318 317 315 314 312 316 315 305 307 310 308 308 310 306 306 311 309 306 305 310 306 309 311 314 307 305 306 305 304 302 303 304
320 320 320 319 318 317 316 315 315 315 315 315 316 316 317 318 313 315 312 315 319 318 300 300 304 307 310 311 304 311 313 309 305 304 308 310 307 306 307 308 308 305 308 304 302 298 294
319 319 320 319 318 316 315 314 315 316 315 316 316 317 317 317 316 314 317 319 318 313 288 301 304 313 311 307 306 306 312 310 303 304 307 302 302 303 304 304 308 305 304 302 302 299 298
319 319 319 319 319 317 315 315 314 316 316 316 317 318 317 317 317 316 318 315 313 299 288 298 304 303 304 306 305 307 307 311 311 304 305 304 308 306 304 304 304 305 303 302 301 299 292
319 319 318 318 318 318 317 314 315 316 317 317 319 318 316 318 316 318 316 312 298 291 300 296 298 302 302 301 301 303 302 302 300 297 299 301 301 303 305 301 303 303 300 293 292 292 291
319 319 318 318 318 319 318 317 315 315 317 319 319 318 318 317 319 318 313 304 291 298 296 302 300 300 298 300 301 301 300 299 301 301 300 296 293 301 302 302 300 300 300 293 287 289 293
320 319 318 318 317 318 318 317 316 316 318 318 317 317 315 316 319 317 308 297 296 298 300 300 298 296 297 298 300 300 300 299 299 300 298 298 294 299 300 302 302 299 295 300 295 295 291
321 320 319 318 318 317 317 317 316 317 319 317 314 311 310 317 317 313 304 299 300 301 300 300 295 298 295 298 297 298 298 299 298 298 301 299 293 298 298 301 301 300 301 294 295 287 287
323 321 319 318 318 317 317 317 316 317 319 316 312 304 311 314 316 307 298 300 301 302 301 299 299 298 298 296 298 297 297 298 298 298 300 300 298 294 297 297 298 297 296 296 296 294 289
323 322 320 319 318 317 316 317 316 316 317 310 309 300 310 314 303 305 300 301 298 301 303 301 302 301 300 299 298 299 297 299 298 298 297 298 299 293 294 296 297 298 298 298 292 291 292
319 323 321 320 318 316 316 316 315 315 313 312 304 305 310 311 299 302 304 300 301 300 300 299 299 300 301 300 297 299 298 297 298 298 297 299 296 290 290 293 295 294 296 297 296 295 291
315 320 322 320 318 317 315 316 316 315 315 312 306 299 304 306 307 302 301 300 299 300 300 299 299 299 298 298 299 297 296 296 298 300 297 299 296 294 291 293 296 292 294 295 295 291 292
315 316 316 321 319 317 316 316 316 315 315 312 305 302 303 299 301 302 302 301 298 297 299 299 298 298 298 295 297 296 297 295 298 298 297 298 293 293 293 293 293 293 293 293 292 294 291
316 315 315 317 320 318 316 315 315 314 314 310 303 302 303 301 301 301 299 299 298 299 298 297 296 298 298 296 297 296 297 297 295 296 296 296 293 293 291 293 293 291 294 294 294 294 294
315 315 316 314 318 319 317 314 315 313 312 307 308 310 303 300 300 298 300 300 300 301 297 297 297 297 296 296 298 300 300 299 299 296 295 294 295 293 291 293 293 291 295 296 296 296 295
313 315 315 315 314 319 318 316 316 313 312 312 310 306 303 297 299 299 299 299 299 299 297 296 297 297 297 302 302 301 300 299 298 297 299 295 295 296 293 293 285 292 296 296 295 295 297
311 312 314 315 314 316 317 317 317 315 313 311 313 305 303 298 302 300 299 298 298 297 296 296 296 299 302 299 296 294 294 295 294 295 296 298 297 294 291 290 293 291 292 293 292 292 298
311 311 312 314 315 314 315 316 316 316 313 312 311 313 305 301 300 302 299 299 298 297 295 295 297 302 300 299 297 293 293 295 292 292 295 295 297 294 291 290 285 291 294 297 296 289 297
311 311 311 312 314 313 314 315 316 315 313 312 310 314 308 301 304 300 299 297 301 299 298 295 295 295 299 297 295 295 294 296 292 291 290 291 292 290 290 289 291 295 296 298 287 291 298
311 311 311 312 314 313 311 312 314 315 314 312 309 314 307 303 304 300 300 298 299 300 297 297 295 296 295 294 296 297 296 297 294 295 292 292 291 289 291 288 286 297 295 291 297 299 299
311 312 312 312 313 312 311 312 311 313 314 313 307 311 310 304 302 302 301 301 300 300 301 299 300 299 301 298 299 301 297 297 296 291 295 290 294 294 293 294 297 299 299 300 300 298 299

GFSGBSN_sfc_thetae_072.txt.gz
Theta_e
320 320 319 318 318 318 319 320 320 319 319 318 319 321 320 321 322 323 323 323 324 324 324 324 324 325 318 307 307 317 334 331 330 324 314 316 316 318 314 316 319 316 318 319 318 317 316
318 319 320 319 318 318 318 319 319 319 320 318 318 320 320 321 321 322 322 322 323 323 323 323 324 324 313 301 317 317 315 316 325 320 316 319 318 323 319 317 315 315 318 316 314 316 315
319 319 319 319 319 319 318 320 320 320 319 319 318 319 320 320 320 320 321 321 322 321 322 322 323 320 310 306 317 318 317 316 317 324 317 320 321 322 322 315 316 315 312 312 313 314 311
321 321 321 320 320 320 322 319 320 320 318 318 318 319 319 320 320 319 319 320 320 321 321 322 323 316 305 317 319 316 316 314 316 319 322 323 323 323 321 317 313 311 312 305 310 311 310
321 321 321 321 321 321 320 318 319 320 319 318 318 318 319 318 317 317 318 319 320 321 322 323 316 312 304 320 312 315 314 311 315 314 318 321 323 318 320 310 306 308 302 306 306 314 310
321 320 320 320 321 320 318 318 318 318 317 317 317 317 318 318 319 318 319 319 321 321 319 319 315 305 308 308 313 313 313 314 311 312 314 315 315 311 311 308 300 303 302 306 306 313 312
321 320 320 321 321 320 318 318 317 317 316 317 317 317 318 317 318 318 316 315 310 309 310 304 306 304 306 312 315 311 315 312 312 311 305 310 307 304 306 310 311 309 307 305 305 307 309
320 320 320 321 321 319 318 318 317 316 316 316 317 316 318 318 319 318 314 311 308 310 302 310 310 309 309 310 304 308 313 305 307 303 308 306 303 310 313 311 309 309 306 306 306 304 303
320 320 320 321 320 319 318 317 316 316 316 316 317 316 317 319 319 315 312 312 317 316 304 308 310 309 309 310 305 305 309 308 305 303 305 304 307 312 311 310 308 308 304 305 303 302 306
320 319 320 320 320 319 317 316 315 316 316 315 317 318 318 319 313 317 312 318 319 317 299 300 303 307 308 310 304 311 311 309 305 302 306 306 309 309 311 307 308 302 308 307 305 299 295
320 320 319 319 319 319 317 316 315 315 316 316 317 317 318 317 312 312 315 318 316 313 286 302 303 312 310 306 306 305 314 309 302 304 307 305 304 306 305 307 309 303 306 305 305 298 295
320 320 319 319 318 319 318 315 315 316 316 317 316 317 318 315 315 316 319 316 312 298 286 298 303 303 302 305 304 306 306 311 310 304 305 304 308 308 307 304 305 305 302 301 300 295 287
320 320 319 318 318 319 318 317 316 316 316 318 318 319 316 316 313 319 317 310 297 290 301 297 298 302 302 301 302 301 301 300 299 296 296 300 301 304 306 301 305 303 297 290 288 287 286
321 320 320 319 318 317 318 318 317 316 316 318 318 318 317 316 317 317 313 303 291 296 297 301 300 300 298 301 301 300 299 297 302 300 299 294 291 300 305 302 298 298 297 290 284 285 288
322 321 320 319 318 317 317 317 316 317 317 318 317 314 313 316 319 317 306 296 295 297 301 299 299 296 297 300 300 300 299 299 298 298 294 295 293 299 301 302 300 298 293 298 291 291 286
323 322 321 320 319 317 317 317 316 316 319 317 312 312 311 317 318 312 302 297 299 302 301 302 294 297 292 297 297 298 298 299 299 299 299 297 290 298 298 301 301 299 299 291 291 283 282
324 323 321 321 319 317 317 317 316 316 319 316 310 304 312 317 315 306 296 298 300 303 302 299 298 297 298 298 298 297 298 298 299 300 301 298 296 293 297 296 296 295 294 294 292 291 284
317 321 323 321 319 317 316 316 316 315 316 311 307 299 311 314 302 303 300 301 299 302 304 301 301 301 300 298 295 297 298 298 299 299 297 299 295 290 292 295 297 296 295 295 288 286 288
315 317 322 321 319 317 316 316 316 314 313 313 303 303 311 310 296 299 304 302 302 300 301 300 300 303 302 299 296 300 299 299 300 299 296 296 293 287 288 291 293 292 295 296 293 291 286
315 315 315 320 320 318 316 315 316 315 315 312 304 298 303 304 303 299 299 300 300 302 300 300 299 300 299 298 300 298 297 298 300 300 300 297 294 291 287 290 293 290 292 293 291 285 286
314 314 315 315 318 319 316 315 315 314 315 312 303 298 303 296 299 299 300 301 298 298 300 300 298 298 297 295 297 296 297 296 299 299 298 295 291 291 291 292 292 292 292 292 289 290 285
314 314 314 315 315 319 318 315 315 314 315 308 300 301 303 299 301 298 298 298 298 300 299 298 296 299 297 295 294 294 297 296 296 296 295 295 291 291 289 292 292 290 292 292 292 292 291
313 315 315 314 315 315 318 315 315 313 313 307 307 307 302 299 299 297 296 298 300 301 299 299 297 297 296 296 298 298 298 297 297 295 293 292 291 290 287 293 292 288 292 293 293 293 292
312 313 314 313 315 315 317 317 315 313 311 310 309 306 300 295 298 298 299 300 298 299 298 297 297 296 298 301 301 299 298 297 297 296 297 293 292 292 288 290 281 290 294 295 295 295 294
312 312 313 313 314 315 314 317 317 316 312 310 310 308 301 295 298 299 300 299 299 298 297 297 296 299 301 300 295 292 292 293 293 294 294 295 294 289 286 285 290 289 291 291 289 290 295
312 312 312 312 313 315 314 315 316 316 314 311 311 312 307 297 296 302 299 300 296 295 294 295 297 300 300 297 295 288 288 293 290 290 295 295 294 290 286 283 280 289 292 296 294 283 294
312 312 311 312 313 314 313 313 315 315 314 312 311 312 308 299 302 302 298 296 301 298 296 294 295 295 298 294 292 292 292 296 290 290 287 288 288 285 286 284 288 292 294 296 282 286 295
313 312 311 312 313 313 314 312 312 311 314 311 310 313 308 302 303 304 301 298 299 299 295 295 294 294 293 291 293 295 292 294 292 293 290 288 287 285 286 283 280 295 293 288 293 294 296
312 312 312 313 313 312 313 312 313 312 309 311 306 312 312 305 303 303 302 303 301 301 297 297 297 296 298 294 296 299 293 294 293 288 293 286 291 289 290 290 295 295 295 297 298 296 294

GFSGBSN_sfc_thetae_075.txt.gz
Theta_e
319 319 320 319 319 318 319 320 321 320 320 320 318 320 321 321 322 322 323 323 323 324 324 323 324 324 318 305 305 316 331 326 318 329 312 309 309 309 308 311 315 312 315 319 314 316 316
319 319 320 319 320 319 319 319 321 320 320 319 319 319 320 320 321 321 321 321 322 323 322 323 323 323 312 299 315 317 316 315 315 322 315 310 311 314 313 313 311 314 316 316 314 314 314
322 322 321 321 320 319 322 321 320 319 319 319 319 319 319 320 321 321 320 320 321 321 322 322 323 319 309 304 315 315 315 313 314 316 313 313 314 312 317 312 314 311 307 309 311 313 310
322 321 322 321 322 322 322 320 318 320 318 319 318 319 319 319 320 318 318 319 321 321 321 322 322 315 302 315 315 314 315 313 314 314 315 319 318 314 313 313 310 306 306 299 308 310 309
321 321 321 321 321 321 319 318 319 319 317 317 318 318 318 319 319 318 319 319 320 321 322 323 315 310 302 320 312 315 314 310 310 311 311 318 316 312 316 305 300 303 296 300 301 310 308
321 321 321 321 321 320 319 317 318 318 317 317 318 319 318 318 318 319 320 320 320 319 319 319 315 302 306 306 310 311 312 312 307 309 307 308 309 305 307 301 294 296 297 301 301 309 309
320 320 321 321 321 320 318 318 317 317 317 316 318 319 318 318 318 319 315 309 303 305 309 302 305 303 306 309 311 307 310 307 307 304 299 305 300 298 304 306 306 304 301 300 304 312 309
321 320 321 321 320 319 318 317 316 316 316 317 316 319 318 318 319 319 313 307 307 307 300 309 308 308 310 311 303 306 309 301 301 298 303 300 297 305 309 310 307 306 302 301 302 304 301
321 320 320 320 320 319 318 316 315 315 316 316 316 318 318 319 318 313 309 310 314 312 300 305 310 308 309 310 304 304 306 303 301 299 300 297 302 309 308 306 305 304 301 300 301 302 301
321 320 320 320 319 320 317 316 315 315 316 316 316 317 317 319 311 312 310 316 313 312 293 300 304 307 308 310 304 309 311 307 301 298 301 301 307 306 305 304 307 300 306 305 299 296 291
320 320 320 319 319 320 318 316 315 315 316 317 317 317 317 317 307 306 313 315 312 308 283 301 303 311 308 305 306 305 313 308 300 301 301 301 303 303 303 306 307 302 305 303 300 295 290
321 321 320 319 319 319 319 318 316 316 316 317 318 317 317 312 309 311 314 314 310 296 286 298 303 302 301 303 304 306 306 309 308 302 304 304 308 305 301 304 306 304 299 298 294 291 284
322 321 320 319 319 318 318 318 317 316 316 317 318 318 316 315 307 313 312 305 292 287 301 296 298 302 301 299 301 300 300 299 295 292 294 299 299 302 306 298 302 299 293 285 284 282 282
323 321 321 320 319 318 317 318 317 317 317 317 317 317 316 315 314 312 306 297 285 294 295 302 301 300 297 300 299 298 296 295 300 297 294 290 288 297 304 300 294 295 292 286 282 281 285
324 322 321 320 319 318 317 318 317 317 318 317 316 308 309 311 314 311 299 289 291 293 300 298 298 294 294 299 298 296 294 295 295 298 292 292 289 298 299 301 299 294 290 295 287 286 282
324 323 322 321 320 318 317 317 317 316 318 316 305 304 307 314 313 306 295 293 294 299 302 301 293 296 293 295 295 294 294 297 298 298 297 295 286 295 297 298 297 294 296 287 286 279 278
318 321 323 321 319 318 317 316 317 316 318 315 303 297 306 312 309 300 290 293 298 301 301 298 297 296 296 296 295 294 295 297 297 297 297 294 293 290 293 291 291 291 290 290 289 287 281
315 316 321 322 319 317 317 316 317 315 315 310 299 292 305 308 296 296 292 298 301 301 301 299 298 298 296 295 294 294 296 298 298 297 293 295 291 285 288 291 293 292 291 290 284 283 284
314 315 316 322 319 317 316 315 316 315 312 306 297 295 303 303 289 290 295 298 300 299 298 297 296 299 298 297 294 297 296 299 298 298 294 293 289 282 284 287 289 288 291 292 290 286 283
314 314 315 317 318 318 316 315 316 314 313 306 296 291 295 296 295 292 292 293 295 299 298 298 295 297 294 295 297 295 294 297 298 299 300 296 289 286 283 285 288 285 289 291 287 281 281
314 314 314 315 316 318 317 315 315 314 313 307 295 291 294 288 291 292 292 294 293 294 296 295 293 294 293 290 292 293 294 294 296 300 295 291 286 287 287 289 289 289 290 289 286 286 283
314 314 314 314 316 315 318 315 315 313 313 302 293 294 295 293 294 292 293 291 293 296 295 293 292 295 292 289 290 290 294 291 290 292 290 291 287 287 286 290 289 288 290 290 289 289 287
314 314 315 314 315 315 315 317 314 313 311 301 298 300 295 293 291 291 292 293 295 295 294 295 293 291 292 293 293 292 293 293 293 291 289 288 287 286 283 290 289 285 289 290 290 290 290
314 314 314 313 315 315 314 317 315 313 311 303 301 301 293 290 292 293 296 297 295 294 292 293 293 291 294 297 296 294 292 294 294 292 293 289 288 288 282 286 279 288 291 292 292 293 292
313 314 314 313 313 315 314 315 317 315 312 304 303 300 295 289 293 295 296 296 296 294 292 293 293 294 295 293 290 287 287 288 290 291 291 291 290 285 282 281 286 287 289 288 287 287 293
314 313 313 313 314 314 314 313 315 316 314 306 304 304 303 293 291 297 294 295 292 288 289 291 293 294 294 292 290 283 283 287 286 288 291 292 290 287 282 278 277 286 290 293 290 279 292
314 314 313 312 313 313 314 313 313 314 314 308 305 306 300 296 297 298 292 291 294 291 288 288 290 291 292 289 286 285 287 292 285 286 283 285 284 281 281 277 284 290 291 293 278 280 291
314 313 313 313 313 313 313 313 313 313 313 310 306 307 304 298 298 301 301 293 294 292 289 290 289 289 287 285 286 288 286 289 287 288 286 284 280 280 281 278 278 291 290 284 287 291 293
314 314 313 313 313 313 313 313 313 312 309 312 304 308 308 303 300 301 300 299 299 298 293 292 290 291 292 287 289 293 289 288 288 283 289 283 288 285 284 284 291 291 290 293 294 293 291

GFSGBSN_sfc_thetae_081.txt.gz
Theta_e
322 318 318 318 318 318 318 320 320 319 318 319 319 319 320 320 320 321 320 321 321 321 321 321 322 322 316 303 302 313 324 320 314 312 316 306 303 303 303 305 308 308 313 317 316 314 311
321 322 322 321 321 319 320 319 318 318 318 317 319 319 319 320 320 320 320 320 320 321 321 320 321 321 309 296 310 313 313 311 312 310 308 309 304 307 305 307 305 310 312 314 315 312 313
321 321 321 321 322 322 319 318 319 318 318 317 318 318 319 319 319 319 320 320 321 321 321 321 320 317 307 303 312 311 312 310 311 310 307 311 308 303 306 306 312 312 308 308 308 309 309
321 321 321 321 321 321 319 318 318 318 318 318 318 318 318 318 318 319 320 320 320 321 321 321 321 315 301 313 312 313 313 311 313 313 312 311 312 305 307 308 307 305 303 299 305 307 306
321 321 321 321 321 320 320 319 318 318 317 317 317 318 318 318 318 319 319 320 321 322 321 321 315 309 299 315 308 312 314 309 309 309 309 312 309 303 304 300 297 299 294 296 300 308 306
321 320 321 321 320 320 319 318 318 317 317 317 317 317 318 318 318 319 320 320 320 318 318 319 315 304 305 303 308 310 310 310 306 304 304 303 304 299 299 298 291 293 295 296 296 303 306
321 320 319 320 320 319 319 318 317 317 317 317 317 317 318 318 318 319 315 309 303 302 305 301 302 303 305 309 311 308 310 307 304 300 294 299 295 293 296 301 301 300 298 297 299 305 302
321 319 319 320 319 319 319 318 317 316 317 317 317 317 318 318 318 318 311 305 305 305 297 306 306 306 309 309 302 306 307 298 297 293 296 296 291 299 303 307 303 301 300 297 299 307 302
320 320 319 319 319 319 319 318 317 316 316 317 317 317 316 318 318 310 307 308 313 308 297 302 307 306 307 307 303 303 305 302 297 293 295 293 298 305 306 306 303 300 298 296 298 301 299
321 320 320 320 319 319 319 319 318 317 316 316 317 317 317 318 308 307 307 313 312 309 291 296 302 305 306 308 301 309 308 304 301 296 297 297 303 303 301 301 304 297 304 302 300 297 292
321 321 320 320 319 319 318 318 318 318 317 317 316 317 318 317 304 305 309 310 309 305 281 299 301 309 306 302 303 303 310 306 300 299 299 295 300 299 299 301 305 300 305 303 300 295 292
323 321 320 320 319 319 318 318 318 318 318 318 317 317 318 309 305 308 310 309 307 290 282 296 302 301 300 302 302 304 304 307 306 302 300 298 304 302 300 302 305 304 298 296 295 292 286
323 322 321 320 320 319 318 318 318 318 317 318 318 317 315 314 300 309 308 303 290 284 296 294 296 300 298 296 299 298 297 296 294 289 290 297 298 301 304 297 300 299 294 284 284 286 285
324 324 322 321 321 320 319 318 318 318 317 317 317 317 314 314 310 309 304 296 284 292 291 299 298 298 293 297 297 298 295 295 298 298 293 291 289 296 302 298 295 295 294 285 281 280 283
323 323 322 321 321 320 319 318 317 318 317 316 314 304 305 308 312 308 296 286 289 291 295 296 296 292 292 296 296 295 292 293 294 299 292 291 290 300 300 300 300 294 291 297 286 283 282
320 323 322 322 320 320 318 317 317 317 315 315 302 301 301 311 310 301 292 290 292 297 298 297 289 293 290 292 293 293 292 295 294 297 298 294 288 295 298 299 298 295 300 289 287 280 278
317 317 318 320 320 318 318 317 317 316 314 314 299 294 300 310 304 295 287 289 295 300 298 296 293 293 293 292 292 290 293 295 296 296 295 292 291 289 292 292 293 291 289 288 287 284 279
316 315 315 318 321 318 317 317 316 316 312 307 296 287 301 303 292 289 289 295 300 297 298 296 295 296 294 294 291 291 293 297 296 295 292 293 288 285 287 292 293 293 289 290 285 283 280
315 315 315 315 318 318 317 316 316 314 311 304 294 293 301 301 287 286 290 294 296 295 295 295 293 295 295 291 289 292 294 298 297 296 291 292 289 282 283 286 289 289 291 289 287 284 280
315 315 315 315 315 315 317 316 315 314 313 302 292 288 293 294 291 288 288 290 291 296 295 295 293 293 291 289 292 292 294 296 296 295 301 295 289 285 282 284 286 283 287 288 286 281 281
317 317 315 315 315 314 315 318 316 314 313 302 292 287 291 287 289 289 289 290 290 291 293 293 291 291 289 287 288 288 291 293 294 299 293 291 287 285 286 288 286 285 286 287 285 284 283
317 317 315 315 316 315 314 316 316 313 312 300 291 290 292 290 290 289 290 287 290 293 291 291 289 292 289 287 288 287 289 289 289 291 289 288 285 285 284 287 287 286 287 287 286 285 285
317 317 316 316 316 315 314 313 314 313 309 297 297 296 294 291 287 286 286 289 292 292 294 293 290 288 288 290 291 290 291 291 290 288 287 286 285 283 281 287 288 285 288 287 287 287 287
317 317 316 315 315 315 314 315 314 314 309 301 299 298 292 288 289 289 291 293 292 292 291 294 291 288 290 293 293 290 289 290 290 288 289 285 286 285 280 284 278 286 289 289 289 290 289
318 317 316 315 315 315 315 315 314 315 311 302 301 298 293 288 291 292 292 292 292 291 289 291 290 291 291 291 287 285 285 286 287 288 287 289 287 282 279 279 284 286 287 286 286 287 291
318 317 317 316 315 314 314 314 315 314 312 305 302 301 297 292 289 294 291 291 288 286 287 289 291 291 292 289 287 280 280 284 284 285 288 289 288 285 280 278 277 283 288 290 286 280 289
317 317 317 316 315 314 314 314 315 313 313 307 303 303 298 293 294 294 290 289 291 288 286 287 289 289 289 285 283 280 283 288 284 283 281 283 282 281 281 277 283 288 289 289 278 281 288
317 317 316 316 315 314 314 314 314 313 314 310 306 305 305 296 294 298 298 292 293 290 286 289 288 286 285 282 282 282 283 287 285 286 284 283 280 279 280 278 279 290 288 283 286 289 289
316 316 315 315 314 313 314 314 314 314 314 309 301 303 305 300 296 301 301 302 300 299 293 290 287 288 288 283 283 284 286 285 285 283 285 282 286 283 284 284 290 290 287 288 290 290 290

GFSGBSN_sfc_thetae_084.txt.gz
Theta_e
321 321 321 321 320 319 319 321 320 319 319 319 319 320 320 320 320 320 320 320 321 321 321 321 320 321 314 302 300 311 323 318 312 311 315 308 301 300 300 303 305 307 310 314 314 313 311
321 321 321 321 320 321 321 319 319 319 319 319 319 319 320 320 320 320 320 321 321 322 321 320 320 321 307 296 308 310 311 311 311 308 306 309 302 304 303 304 304 307 311 314 315 310 312
321 320 321 321 322 322 321 319 319 319 318 318 319 319 320 320 320 320 320 321 321 321 321 320 320 316 307 302 311 311 312 309 310 309 304 308 309 302 301 303 310 308 306 307 310 308 308
321 321 321 321 321 321 320 320 319 318 319 318 318 319 319 319 320 320 320 321 322 322 322 321 320 314 301 313 312 312 312 310 311 311 310 310 310 305 300 305 305 305 305 299 306 306 306
321 321 321 321 319 320 319 319 318 318 318 318 318 318 318 319 319 320 320 321 322 321 321 321 312 306 299 314 307 310 312 308 309 309 309 312 308 302 300 297 295 298 293 295 299 305 305
320 320 319 320 320 319 319 318 318 318 317 317 318 318 317 318 318 319 320 320 320 319 318 318 314 301 303 302 308 309 309 310 306 304 303 301 302 296 295 294 290 291 293 294 296 302 304
321 320 319 319 319 319 319 318 318 317 317 317 317 318 318 317 318 318 314 307 302 299 303 300 301 301 304 308 311 307 309 306 303 298 292 297 293 291 293 297 299 298 297 295 297 303 302
320 320 319 320 319 319 320 319 318 317 317 317 317 318 317 317 318 318 310 303 303 304 297 304 304 305 308 308 301 304 307 297 296 291 294 293 289 296 300 300 299 300 299 297 298 304 300
321 320 320 320 319 319 319 319 318 318 317 317 317 317 317 318 318 309 306 306 311 307 296 301 305 305 306 306 301 301 303 299 295 293 295 291 295 300 300 300 300 301 298 298 297 300 298
322 321 321 320 319 319 319 318 318 318 318 317 317 317 317 318 306 306 305 311 309 308 290 294 300 303 306 307 300 307 305 302 300 295 296 295 300 300 300 299 301 295 302 301 300 297 292
323 322 321 320 320 319 319 318 318 318 318 318 317 317 317 317 305 302 307 308 308 303 280 297 301 308 306 301 301 302 309 304 298 298 296 292 297 297 298 299 303 297 304 300 299 293 291
324 323 322 320 320 320 319 318 318 318 318 318 318 317 317 307 304 306 308 307 306 289 281 294 301 300 299 300 301 304 302 306 306 300 300 297 303 301 298 301 303 302 298 297 293 291 285
325 324 323 321 320 320 319 318 318 318 318 317 317 317 314 314 300 308 307 301 289 283 294 292 295 298 297 295 298 298 296 297 295 291 291 295 296 300 304 296 299 299 294 285 284 284 285
325 325 324 322 320 320 319 318 318 318 317 316 316 316 313 313 309 309 302 293 281 290 290 296 297 297 293 296 296 297 293 294 298 298 293 289 287 295 299 296 294 294 294 286 281 281 284
324 323 323 322 321 320 319 318 318 317 316 315 313 302 302 306 310 307 294 285 287 290 294 294 295 290 290 295 295 293 290 291 293 300 290 288 289 297 299 299 298 293 290 293 284 281 281
321 321 323 322 322 320 319 317 317 317 316 313 301 299 299 309 309 299 290 289 290 297 295 296 288 291 288 291 291 291 291 293 293 297 297 294 286 295 300 298 295 294 297 292 288 279 277
319 318 320 321 320 319 318 317 317 316 314 313 297 292 299 309 302 293 286 287 293 299 298 294 292 291 291 291 291 289 291 295 295 295 294 293 291 289 296 292 291 290 288 289 292 287 282
318 317 316 317 319 319 318 317 316 315 312 306 295 287 299 301 291 287 287 293 299 296 296 295 294 293 292 291 290 289 291 294 296 294 291 292 289 285 288 292 292 293 290 290 285 282 280
316 316 316 316 317 319 317 317 315 313 311 301 293 293 301 301 285 284 289 293 294 294 293 293 292 295 294 289 287 290 294 296 295 294 290 290 287 281 283 288 291 291 291 289 288 285 279
317 316 316 316 315 315 318 317 315 313 313 301 291 286 292 293 289 287 287 289 290 295 293 294 292 292 290 288 290 290 290 296 295 294 302 295 289 284 281 283 285 284 288 288 286 282 280
318 317 316 316 317 314 314 317 315 313 313 300 291 286 289 286 287 287 288 289 288 289 293 292 290 290 288 285 286 286 289 291 294 298 292 289 285 284 285 287 285 285 285 286 284 284 283
318 318 316 316 317 316 314 315 316 313 311 298 290 289 290 288 288 285 289 286 287 290 290 290 287 289 288 286 287 285 287 286 287 290 288 288 284 284 283 288 286 285 287 286 285 284 284
318 318 318 317 317 316 315 313 315 312 308 297 295 296 293 289 285 285 285 288 291 291 292 293 290 288 287 289 290 290 290 290 289 287 286 285 284 283 281 287 287 285 287 287 285 286 286
319 318 317 317 316 316 315 314 314 312 308 301 298 296 291 286 287 287 289 291 291 291 290 293 291 287 289 292 292 289 287 288 288 288 288 284 285 283 279 284 278 286 288 289 288 289 288
319 318 317 317 316 316 315 315 315 314 309 302 299 297 292 288 289 290 290 290 290 290 289 291 290 290 289 290 287 284 284 285 285 286 286 287 286 282 278 279 284 284 286 285 285 286 290
319 318 317 317 316 315 315 315 315 315 311 304 302 300 296 290 287 293 290 289 287 285 286 289 292 290 290 288 285 280 278 282 284 284 287 288 288 284 281 278 277 284 287 289 285 279 285
319 318 318 317 316 315 315 315 315 314 312 308 303 302 297 291 293 294 290 288 290 287 286 287 290 289 287 284 282 279 281 287 283 282 281 281 281 281 281 278 283 288 288 288 278 281 287
318 318 318 317 316 315 315 315 314 314 313 310 305 303 303 294 293 297 297 291 292 290 286 288 288 286 284 281 281 280 280 285 284 285 282 282 278 278 280 278 278 289 287 282 286 287 288
318 317 317 317 316 315 315 314 314 315 314 311 303 305 307 301 295 300 300 299 298 297 293 290 287 287 288 282 281 281 283 283 284 282 284 282 285 282 283 284 289 289 287 287 289 290 289

GFSGBSN_sfc_thetae_087.txt.gz
Theta_e
321 321 321 321 321 321 320 320 320 320 319 319 319 320 320 321 321 321 321 322 322 323 322 322 321 321 314 303 302 311 320 317 313 311 315 311 305 302 301 304 307 308 312 315 318 315 313
320 320 321 321 321 321 320 320 319 319 319 319 319 320 320 321 321 321 321 322 322 322 322 321 321 320 308 296 310 311 313 312 311 309 308 310 306 305 302 304 305 309 312 314 317 313 314
321 320 321 321 321 321 321 320 320 318 319 319 319 319 320 320 320 321 321 321 322 322 322 322 321 316 307 302 313 313 313 310 311 310 306 308 311 306 304 302 308 309 306 311 314 313 312
321 321 321 321 320 320 319 319 318 319 318 318 319 319 319 319 319 320 321 321 322 322 323 322 320 314 301 313 314 313 313 311 312 312 310 310 311 308 305 305 303 305 307 301 310 310 310
321 321 320 320 320 319 319 318 318 318 318 318 318 318 319 318 319 320 320 320 322 321 322 321 314 307 300 314 308 311 313 309 310 310 310 312 309 304 303 298 295 301 296 300 303 309 307
321 320 320 320 319 320 319 319 318 318 317 318 318 318 318 318 318 319 319 320 320 319 319 318 314 302 303 303 309 311 311 312 307 305 304 304 303 299 297 295 286 294 297 299 301 304 306
321 320 319 320 319 319 319 319 318 318 317 317 317 318 318 318 318 319 315 307 303 301 306 302 301 302 304 309 311 308 310 307 305 301 295 299 295 293 295 296 297 299 299 299 301 305 305
320 320 320 320 319 319 319 318 318 318 318 317 317 317 317 318 319 318 310 304 305 306 298 305 304 304 307 309 302 306 309 300 299 293 296 296 292 297 300 298 297 294 295 298 303 304 304
321 321 321 321 320 319 319 318 318 318 318 318 317 317 317 318 318 309 307 308 311 309 298 302 305 304 306 307 303 303 305 301 297 295 295 293 295 300 297 298 295 294 294 298 300 302 303
323 322 321 321 320 320 319 318 318 318 318 318 317 317 317 317 306 305 307 310 309 309 291 295 301 305 307 307 301 308 306 303 300 297 297 295 299 297 297 296 299 293 302 302 300 300 295
324 323 322 321 320 320 320 319 318 318 318 318 317 317 316 315 304 302 309 309 309 304 282 297 301 309 306 303 303 305 309 306 299 299 299 295 298 298 296 297 302 297 304 302 300 298 297
325 324 323 322 320 320 320 319 318 318 319 317 317 317 316 307 305 306 308 308 306 290 284 294 301 300 299 301 302 305 304 308 307 301 301 299 303 302 300 302 303 302 300 298 296 296 291
325 324 324 323 321 321 320 319 318 318 318 316 316 317 314 313 299 309 307 302 290 284 295 293 295 298 297 296 298 300 297 298 296 290 292 296 297 301 303 298 302 301 298 289 288 289 288
326 325 324 324 322 321 320 319 318 318 318 316 315 314 312 312 309 310 301 293 284 291 291 296 297 296 293 297 297 297 294 294 300 298 292 288 288 296 300 298 296 297 297 289 283 286 289
326 325 324 323 323 321 320 319 318 318 317 315 311 302 302 305 309 307 295 286 287 291 295 294 294 291 291 295 295 294 293 293 295 300 290 288 288 298 300 300 300 295 293 297 287 285 286
324 323 322 322 322 321 320 318 318 318 317 313 302 299 299 308 309 299 291 289 290 297 296 296 290 293 289 291 292 292 291 295 294 297 300 294 288 296 300 299 298 298 300 293 293 283 281
322 321 320 322 322 320 319 318 317 317 315 312 298 292 301 308 301 294 286 287 293 298 298 294 292 292 292 291 292 291 292 296 296 295 296 296 292 291 298 295 292 294 292 292 295 290 285
322 320 320 319 318 318 319 318 315 315 312 305 294 289 298 301 291 287 288 293 298 296 296 295 295 294 292 292 291 291 292 295 296 295 292 294 291 286 291 298 294 295 292 294 291 285 285
321 320 319 318 316 317 319 318 316 314 311 299 292 292 301 301 287 285 289 292 294 294 293 293 293 295 295 291 288 291 293 298 297 295 292 292 290 284 285 291 294 294 294 291 290 289 283
321 319 318 318 316 315 318 317 315 314 312 299 291 286 292 294 290 289 288 289 290 294 293 293 292 292 290 289 291 290 291 296 296 296 302 295 290 287 284 287 289 289 290 291 290 286 285
319 319 318 317 317 315 316 318 316 313 313 297 290 287 290 287 288 288 289 289 289 289 293 292 290 289 288 285 287 287 290 291 293 297 293 291 286 287 287 288 288 287 287 288 287 288 287
319 319 318 318 317 316 314 315 317 313 311 296 289 289 291 289 289 288 289 287 288 290 290 290 288 290 288 286 288 286 288 288 289 291 289 289 286 286 285 290 288 286 288 287 287 288 287
318 318 318 318 317 317 315 313 316 313 306 295 294 295 294 289 286 286 286 288 291 291 292 293 291 289 288 290 290 291 291 291 290 289 288 287 286 285 283 287 288 285 289 289 288 288 289
319 318 318 318 317 317 315 314 315 313 307 300 298 295 290 284 287 287 289 291 290 290 290 292 291 289 291 292 292 290 288 288 288 289 289 286 287 285 283 285 281 289 291 291 290 290 291
319 319 318 318 318 317 316 315 314 314 309 301 299 297 292 287 289 290 290 290 290 289 288 290 290 291 290 290 288 285 285 286 287 289 288 288 287 284 282 281 286 287 289 288 288 289 288
319 319 319 318 317 316 316 315 315 315 311 303 301 299 296 290 288 293 290 290 287 286 286 289 293 293 291 288 286 282 281 284 285 286 289 289 288 286 283 281 280 287 289 292 289 283 288
319 319 319 318 317 316 316 315 315 315 312 305 302 302 297 291 293 293 290 288 290 287 286 287 291 290 288 284 283 281 282 287 284 285 284 283 283 283 283 283 286 290 291 291 283 285 290
319 319 318 318 317 316 316 315 315 314 313 309 302 303 300 293 293 296 297 292 292 290 287 288 287 287 286 282 282 282 282 285 286 287 285 284 282 282 282 282 281 292 290 287 289 291 292
319 319 318 318 317 316 315 315 315 314 314 310 300 304 306 299 294 300 300 299 298 296 293 291 288 287 289 284 283 283 284 284 286 284 286 284 287 285 286 287 292 292 291 292 291 293 293

GFSGBSN_sfc_thetae_090.txt.gz
Theta_e
321 321 321 320 320 320 320 319 320 320 320 320 320 320 321 322 322 322 322 323 323 324 323 323 323 322 318 307 303 313 319 319 316 314 311 308 305 305 300 302 305 306 308 312 316 319 321
320 319 321 321 321 322 321 321 320 319 319 319 320 320 321 321 321 321 322 322 323 323 323 323 323 321 313 300 314 314 315 315 314 314 311 312 306 308 304 303 302 306 309 308 312 317 319
321 320 320 321 320 319 319 319 319 319 319 319 319 320 320 320 320 321 321 322 322 323 323 323 322 318 311 306 316 318 317 314 314 314 310 311 311 307 306 302 306 306 301 306 311 309 316
321 320 319 320 320 320 319 319 318 319 319 319 319 319 320 320 320 320 321 321 322 323 323 321 321 317 308 317 320 317 317 315 316 316 314 314 313 310 308 307 303 301 304 296 304 312 313
321 320 320 320 320 319 319 319 319 318 318 318 319 319 319 319 319 320 320 321 321 323 322 321 317 312 305 317 313 315 316 312 313 314 314 313 310 306 306 300 296 298 292 298 299 312 312
321 321 320 320 319 319 319 319 319 318 318 318 318 318 319 319 319 320 320 320 322 322 320 320 317 308 310 308 313 314 316 314 310 309 307 307 306 301 301 298 289 291 292 296 298 305 312
320 320 320 320 320 319 319 319 319 318 318 318 318 318 318 318 319 319 319 316 310 309 310 306 307 307 309 314 315 313 314 311 309 305 300 302 298 296 297 298 298 296 294 294 300 305 308
321 321 321 321 320 320 319 319 318 318 318 318 318 318 318 318 318 318 318 309 308 309 304 310 309 308 311 312 307 310 313 305 303 300 301 299 296 301 302 299 297 296 294 295 301 305 307
322 321 321 321 321 320 320 319 319 319 319 319 318 318 317 318 318 315 315 312 315 313 304 307 310 308 310 311 307 307 309 306 302 299 301 298 300 304 300 298 296 296 295 294 297 305 308
323 323 323 322 321 321 320 319 319 319 319 318 318 318 317 317 311 313 313 315 316 314 301 300 304 309 310 310 305 312 311 306 303 299 301 300 303 300 299 297 298 293 299 297 300 300 296
324 324 323 322 321 321 321 320 319 319 319 319 317 317 317 315 311 308 311 315 316 312 289 302 304 314 310 306 306 307 311 308 302 302 302 299 301 300 298 297 300 296 301 298 299 300 301
325 325 324 324 322 321 320 320 319 319 319 319 316 317 317 313 313 312 315 314 314 298 288 298 303 302 303 304 305 308 306 310 309 302 301 301 306 303 302 304 304 304 301 301 301 300 292
326 325 325 324 323 322 321 320 319 319 319 318 316 315 315 315 306 315 314 311 298 292 300 297 298 301 301 299 301 303 302 301 299 294 292 297 299 303 303 300 305 303 298 290 288 286 289
326 326 325 324 324 322 321 320 319 319 319 318 315 313 314 315 316 315 311 302 291 295 296 301 299 300 296 300 299 300 300 298 302 300 294 290 289 298 302 300 298 298 298 291 285 288 291
326 326 325 324 324 323 322 320 319 319 318 315 312 312 311 313 315 315 304 293 294 297 299 298 299 296 296 298 298 298 298 297 298 302 293 290 291 300 302 303 302 298 296 297 290 292 294
326 326 325 324 322 322 322 320 318 318 317 313 311 308 311 314 316 308 300 294 296 300 300 299 293 296 294 296 296 297 296 299 299 299 303 295 289 298 300 303 301 300 302 291 292 287 286
326 325 323 322 321 321 321 320 317 317 315 312 308 301 311 314 311 304 294 294 297 302 301 297 296 295 296 295 296 295 296 298 300 299 299 300 294 292 300 297 295 298 296 298 298 294 290
326 324 322 321 320 320 320 320 317 315 312 310 305 295 308 310 300 299 296 297 298 299 300 299 299 298 296 297 295 295 295 297 299 299 295 299 294 288 294 301 301 295 295 299 295 291 292
325 324 322 321 319 317 317 319 317 314 311 308 299 301 309 309 293 295 296 296 298 297 297 297 296 297 298 295 292 295 297 301 300 298 296 297 294 289 289 295 297 296 298 296 295 297 292
325 324 322 320 318 315 316 318 316 314 312 308 300 294 302 306 300 297 295 295 294 299 297 298 297 297 295 294 296 294 295 298 300 299 302 299 294 291 288 289 291 291 295 296 296 293 292
323 323 322 320 318 316 316 318 317 314 312 307 301 295 298 293 296 297 296 295 294 293 298 298 294 294 292 291 293 292 295 296 298 298 297 296 292 292 293 293 292 292 291 293 292 294 291
322 322 321 319 318 316 316 318 317 314 311 305 297 297 299 298 295 295 294 293 292 293 295 293 293 295 294 292 293 292 293 294 294 297 296 296 292 292 289 292 293 290 292 292 291 292 293
321 320 319 319 318 317 315 314 316 313 309 304 303 304 300 294 293 293 292 293 293 295 296 297 296 294 293 295 296 297 297 297 296 294 293 293 292 291 288 291 292 290 292 293 292 293 293
320 319 319 319 318 317 316 314 316 313 310 308 305 304 297 290 292 291 292 293 293 295 293 295 296 293 295 299 300 300 296 295 295 294 296 293 292 293 290 292 285 293 295 294 293 294 294
320 319 318 319 318 317 316 315 317 314 310 309 309 305 299 290 293 293 293 294 295 295 293 294 296 297 299 297 294 292 293 293 292 293 294 295 293 291 289 289 291 291 293 292 291 291 293
320 319 319 318 318 317 316 315 316 315 310 310 309 309 305 294 292 295 293 294 291 291 292 294 299 301 297 296 293 288 287 289 290 292 294 293 295 292 290 287 285 292 294 296 293 288 294
319 319 319 319 318 317 317 315 315 315 311 311 310 309 306 297 298 298 294 293 296 293 291 294 296 296 296 294 290 289 288 292 289 289 290 290 291 290 290 289 292 296 296 295 288 290 295
319 319 319 318 318 317 317 316 315 315 313 312 309 310 306 299 299 300 300 297 296 296 290 294 293 294 296 290 290 291 290 292 292 294 292 291 290 291 290 289 288 296 295 291 295 297 297
319 319 319 318 317 317 316 316 315 315 314 313 307 310 311 304 300 303 304 305 303 301 298 297 294 293 298 293 292 293 291 293 293 290 294 291 294 293 293 294 297 298 297 298 296 298 299

GFSGBSN_sfc_thetae_096.txt.gz
Theta_e
320 321 321 322 322 322 321 321 321 321 321 321 321 322 322 323 323 323 323 323 324 325 325 325 325 325 321 313 307 319 322 324 319 316 312 309 307 306 301 303 303 300 302 305 307 308 309
321 320 321 321 320 320 321 321 320 320 321 321 321 322 322 322 322 322 323 323 324 325 325 325 325 324 318 305 315 317 316 317 317 315 313 312 307 308 303 301 300 303 302 302 305 306 307
322 320 321 320 320 320 321 321 320 320 320 320 321 321 322 321 321 322 322 323 324 324 325 325 324 321 315 308 317 320 319 318 318 316 312 314 312 307 306 302 306 304 299 301 302 303 305
322 321 321 321 321 321 321 321 320 320 320 320 320 321 321 321 321 321 322 323 323 324 324 323 323 321 311 318 320 319 320 317 319 318 316 317 315 309 306 307 304 299 299 292 300 302 303
322 321 321 321 321 321 321 320 320 320 320 321 321 320 320 320 320 321 322 322 323 324 324 322 319 317 307 318 315 318 319 314 316 316 317 316 312 307 307 300 296 298 291 293 296 302 301
321 321 320 321 321 321 321 320 320 320 320 320 320 320 320 320 320 321 321 323 325 323 323 323 320 312 313 310 315 317 319 317 312 313 310 309 307 302 302 298 290 293 292 294 294 299 300
320 321 321 322 321 321 321 320 320 320 320 320 319 320 320 319 320 320 319 319 311 314 313 308 309 309 311 315 318 315 317 314 313 309 302 307 300 296 299 302 301 299 296 294 296 299 297
322 322 322 322 322 322 322 321 320 320 320 320 318 319 319 319 319 319 317 310 309 311 304 314 313 312 314 315 308 313 316 308 307 301 305 302 297 303 303 303 301 299 295 294 296 298 296
323 323 322 322 322 322 322 322 321 320 320 319 319 318 319 319 319 315 315 311 318 317 305 310 313 310 311 312 308 309 312 309 304 301 301 298 301 305 303 300 297 297 295 294 293 296 297
324 324 324 323 322 322 321 321 321 320 320 320 319 318 317 317 314 312 314 314 318 318 301 304 307 310 311 313 306 314 314 309 305 300 302 300 305 302 301 298 299 293 299 297 295 293 286
325 324 324 324 323 322 321 321 321 321 321 320 319 318 317 315 312 308 312 315 318 315 290 303 306 314 311 306 307 309 315 309 302 302 302 298 300 299 298 299 301 296 300 297 297 292 290
326 325 325 325 324 323 322 322 321 321 321 320 319 318 316 315 315 314 315 315 315 301 290 300 305 304 304 306 306 308 308 312 310 303 302 301 307 304 301 303 303 304 299 297 296 293 284
327 327 326 326 325 324 323 323 322 321 321 320 318 317 314 316 309 317 318 311 298 293 302 298 299 302 301 301 302 303 302 301 297 291 292 298 300 304 305 300 303 301 295 284 283 284 283
327 327 326 325 325 324 324 323 322 321 320 319 316 314 316 314 318 319 314 303 291 298 298 303 301 300 298 301 301 301 300 297 299 296 292 290 289 298 303 300 297 298 294 286 278 283 286
327 326 326 325 325 324 324 323 323 321 319 317 313 314 313 317 319 317 306 294 294 297 300 298 298 296 297 300 299 299 298 297 298 297 290 291 292 301 303 303 302 296 293 296 287 289 287
326 326 326 325 325 324 324 323 322 321 319 315 308 309 311 317 319 313 301 296 297 301 300 299 292 297 293 296 296 296 297 300 297 299 300 296 289 299 302 305 304 300 300 290 289 283 281
327 326 326 325 324 323 323 322 322 322 318 314 308 302 313 317 315 304 296 296 298 302 302 297 295 294 295 295 296 295 296 299 299 298 299 297 294 293 299 298 295 296 294 296 294 292 286
327 327 326 325 324 322 321 320 322 320 316 310 305 298 311 313 300 302 296 298 299 298 302 300 300 298 297 297 294 295 295 297 301 300 295 298 293 288 293 300 302 299 295 297 290 288 290
328 327 326 325 323 321 319 320 321 318 314 309 300 302 312 310 296 297 300 298 299 298 298 298 297 300 299 295 292 296 297 302 302 299 296 296 291 286 289 294 296 293 295 299 297 296 290
328 327 326 325 323 320 318 318 319 317 314 308 301 297 303 305 304 296 296 296 296 302 299 300 298 300 297 295 297 295 295 301 302 301 305 301 293 289 285 289 292 290 293 294 296 291 290
327 326 326 326 323 320 318 317 318 317 314 308 300 298 300 298 299 299 298 296 294 293 299 300 297 297 295 291 292 292 295 296 299 301 300 296 289 292 293 294 293 292 292 292 290 289 285
326 325 326 325 323 320 318 316 317 315 312 306 298 297 300 297 299 297 296 295 294 294 294 293 292 295 295 291 292 290 293 294 293 297 295 296 290 292 290 295 294 292 294 294 294 293 291
325 324 324 324 323 320 317 315 316 314 310 302 303 305 301 298 297 295 296 296 295 295 296 296 296 293 290 292 295 295 295 294 293 292 292 293 292 290 287 294 294 289 291 293 293 292 290
324 324 323 323 322 320 317 315 316 314 311 307 305 303 296 292 297 296 297 297 295 295 292 295 295 291 295 300 299 299 296 294 294 294 297 292 291 291 286 291 282 291 295 295 293 293 294
324 323 322 322 322 320 317 316 317 315 312 310 309 306 301 293 296 298 298 297 297 297 294 294 295 297 300 298 293 291 293 293 295 296 295 295 292 288 285 285 290 292 293 292 290 290 296
323 324 323 322 321 319 317 315 316 316 313 310 308 311 306 297 295 298 298 299 293 293 294 294 298 301 299 294 292 286 286 290 290 292 296 296 294 289 288 284 282 291 294 296 293 284 296
323 323 322 322 321 319 317 316 316 316 314 310 308 311 306 298 300 300 295 296 298 294 291 293 294 295 298 291 289 288 288 294 287 288 289 290 290 286 287 286 291 294 295 297 284 286 296
322 322 322 321 320 319 318 316 315 315 314 310 307 311 306 300 301 301 302 298 297 295 289 293 291 293 292 289 289 290 289 292 290 292 291 290 288 287 289 285 284 297 295 290 293 295 296
313 321 321 320 319 318 317 316 315 315 314 312 305 311 310 304 302 305 305 305 303 301 297 296 293 293 294 292 292 292 290 292 291 287 295 288 292 289 291 291 297 297 296 298 298 296 296

GFSGBSN_sfc_thetae_099.txt.gz
Theta_e
320 320 322 321 321 321 321 321 321 321 321 322 322 322 323 323 323 324 324 324 324 326 326 326 327 326 319 310 303 323 327 323 320 316 311 308 302 300 296 298 298 296 298 303 304 304 304
321 320 321 320 321 321 322 322 321 321 321 321 322 322 322 322 322 323 323 323 324 325 325 325 326 325 315 300 312 316 315 315 317 314 311 310 305 305 299 298 295 299 299 300 301 301 303
321 322 321 321 321 322 322 321 321 321 321 321 322 322 322 322 322 322 322 323 323 324 324 326 325 321 312 307 312 313 317 315 317 316 311 313 311 305 303 299 303 301 295 297 298 300 299
322 321 322 321 321 321 322 321 321 321 321 322 322 322 322 321 321 321 322 323 323 323 324 325 324 315 306 315 314 316 317 315 317 316 315 314 313 307 304 304 302 297 295 289 296 298 300
322 322 321 321 321 321 321 321 321 321 321 321 321 321 321 321 321 321 323 323 323 325 325 325 316 311 304 320 312 315 315 313 314 314 314 316 312 304 304 296 291 293 287 289 293 299 298
320 321 321 322 321 321 321 321 321 321 320 321 320 320 320 320 320 321 322 322 324 323 323 322 320 305 310 307 313 314 313 315 311 311 309 307 302 297 296 293 288 291 290 292 291 296 297
320 321 322 322 322 323 323 322 322 321 321 320 320 319 319 320 320 321 316 311 304 304 308 303 305 306 309 313 315 311 315 312 311 306 297 302 298 293 296 297 298 296 294 293 296 299 294
322 321 321 322 322 323 323 322 322 321 321 321 320 320 319 319 318 319 313 306 306 307 300 310 311 310 312 312 306 310 313 304 303 297 300 296 292 299 302 302 299 296 293 291 295 298 294
323 323 322 322 322 322 322 321 321 321 321 320 320 320 319 318 318 312 309 308 313 312 300 308 311 309 310 310 306 307 310 306 301 297 297 293 297 304 302 299 297 295 293 293 293 296 295
324 324 324 323 323 322 321 321 321 321 321 321 320 319 318 317 310 307 307 310 312 313 296 302 305 309 311 313 305 313 312 307 302 297 299 297 303 301 299 298 299 292 299 298 295 291 284
325 324 324 325 324 323 322 321 321 321 321 320 319 318 317 316 306 306 308 310 310 309 284 302 305 313 308 305 305 307 313 307 299 300 297 293 298 298 298 298 300 296 301 297 296 291 287
326 325 325 325 325 324 323 322 321 321 321 320 319 318 316 311 309 309 311 311 308 295 286 299 305 302 300 303 303 306 307 309 307 301 297 295 303 303 300 302 302 302 299 297 295 292 281
327 327 326 325 325 324 323 323 322 322 321 320 318 317 313 313 304 311 312 305 291 288 299 296 297 299 298 297 300 301 299 295 291 286 287 292 297 301 303 297 301 301 293 282 279 281 282
327 326 326 325 325 324 324 323 323 322 321 319 317 315 313 313 310 312 308 296 285 295 294 300 297 297 294 299 297 297 295 291 294 292 287 284 285 295 300 297 295 296 293 284 276 280 284
327 326 325 325 325 324 324 323 323 322 320 317 313 305 306 310 315 310 299 288 288 293 297 295 295 292 293 296 295 294 292 293 293 293 286 286 288 298 299 301 299 294 293 294 285 287 285
326 326 325 325 324 323 323 324 323 321 320 314 302 302 303 314 314 306 294 292 293 299 298 297 289 294 289 291 292 291 291 295 295 297 294 291 285 294 299 301 300 296 300 290 289 283 277
327 326 326 325 324 322 322 324 323 321 319 314 302 297 307 312 308 298 289 290 296 299 300 295 292 292 292 292 292 290 292 296 297 296 296 291 287 287 293 293 291 292 291 295 294 289 285
327 327 326 325 324 322 322 323 321 320 316 308 300 292 307 307 294 293 289 295 299 297 299 298 297 295 293 293 291 290 291 294 298 296 292 293 288 283 288 295 298 293 290 296 288 287 290
328 327 326 325 324 321 321 321 319 318 313 303 295 295 306 303 289 288 292 297 298 297 297 296 295 297 296 293 289 292 293 299 298 296 292 292 286 281 284 288 291 288 291 292 295 293 286
328 327 327 326 324 321 320 319 318 317 314 303 295 290 297 297 295 288 289 293 293 298 297 298 296 296 294 292 293 290 290 296 297 298 305 299 289 285 281 285 288 287 290 290 290 283 284
326 327 327 326 324 321 320 319 318 317 314 302 294 290 296 292 293 291 292 292 292 291 296 295 293 294 291 288 289 289 290 291 295 302 295 290 285 287 289 291 291 289 290 291 287 286 282
326 326 327 327 324 322 320 318 317 316 312 299 292 290 294 291 294 292 293 291 292 292 290 289 288 292 290 286 287 285 288 287 288 291 289 290 285 288 286 292 291 289 291 291 290 289 288
326 325 325 325 324 322 320 317 316 314 308 297 296 298 296 294 293 291 291 292 293 292 293 294 292 289 287 289 291 291 291 290 290 286 285 286 286 285 282 289 290 286 288 289 288 289 287
325 325 324 325 324 322 320 317 316 314 309 299 297 295 289 287 292 294 296 295 293 292 290 292 291 287 291 296 295 293 292 292 290 288 289 286 286 286 282 286 279 288 292 292 290 292 292
324 325 324 324 324 322 320 318 317 314 312 303 302 298 293 287 292 294 295 294 294 293 292 292 293 293 295 293 288 286 288 288 290 290 289 289 287 283 280 280 287 288 290 289 287 288 293
320 324 324 323 322 321 319 318 316 315 313 306 303 305 299 290 289 297 294 294 290 287 290 293 293 296 294 290 287 281 281 286 285 288 292 291 289 285 282 279 279 287 291 293 290 282 293
315 322 323 323 322 321 320 318 316 315 313 307 302 305 299 292 295 294 291 292 293 289 287 289 290 290 293 286 283 282 284 289 284 284 285 285 285 282 281 278 287 291 293 294 281 285 293
312 313 322 322 322 321 320 318 316 315 314 309 302 306 300 293 295 298 299 293 292 290 286 289 287 288 287 283 284 285 285 287 285 287 287 286 282 281 283 279 281 294 292 287 291 292 294
312 312 319 322 321 320 319 318 317 316 315 311 299 307 307 300 296 303 302 300 299 297 292 291 288 289 290 288 286 286 286 286 286 282 290 284 288 286 287 287 294 294 293 295 295 293 293

GFSGBSN_sfc_thetae_102.txt.gz
Theta_e
320 320 320 320 321 321 321 321 321 321 321 322 322 323 323 323 323 323 324 324 324 325 326 326 326 327 318 305 302 318 330 325 317 315 311 308 301 299 295 296 297 294 296 300 301 302 302
320 321 321 321 321 321 321 321 321 321 321 322 322 323 323 323 323 323 323 323 324 324 324 325 326 325 313 298 310 317 319 313 316 313 310 309 306 305 299 298 295 297 299 299 300 300 300
321 321 321 321 321 322 322 321 321 321 321 322 322 323 322 322 322 322 323 323 323 323 324 325 325 320 311 304 311 311 314 313 315 314 310 311 310 304 302 298 302 300 295 297 298 298 297
321 320 321 321 321 321 321 321 321 321 321 322 322 322 321 321 321 322 322 323 323 323 324 325 324 315 304 316 312 314 315 313 315 315 314 313 312 307 303 303 301 296 294 288 296 297 298
321 320 320 321 321 321 321 321 321 321 321 321 321 320 319 319 320 321 322 322 324 325 325 325 315 310 302 319 311 313 314 312 313 313 313 315 310 303 302 295 291 292 286 289 292 299 297
320 320 321 321 322 322 322 322 322 321 321 321 320 320 320 320 320 321 321 322 324 322 322 322 319 301 306 306 312 313 312 314 310 309 307 306 301 296 295 291 285 289 289 291 291 295 297
320 321 321 322 322 323 323 322 322 321 321 321 320 320 320 320 320 320 316 306 303 299 306 301 303 305 307 311 313 310 313 311 309 304 296 300 294 291 294 296 296 294 292 291 295 299 295
322 322 321 322 322 322 322 321 321 321 321 321 321 320 319 319 319 319 310 305 305 306 299 308 309 309 311 310 305 308 312 303 302 296 298 295 291 297 301 301 298 296 292 291 294 297 295
323 323 322 322 322 322 321 321 320 321 320 320 320 320 318 318 318 310 307 306 311 311 299 305 310 308 308 309 304 305 309 304 299 296 296 291 296 302 301 298 296 295 292 292 292 296 295
324 324 324 324 323 322 321 321 321 321 321 320 320 319 318 318 305 306 305 309 308 311 294 300 303 307 309 310 303 311 310 305 300 296 297 294 301 300 299 297 298 291 298 297 296 293 286
325 324 324 324 324 323 323 321 321 321 321 320 319 318 317 316 304 304 307 308 309 307 283 300 303 311 306 304 303 305 311 305 298 298 295 290 294 296 297 297 299 295 301 298 297 293 290
325 325 325 325 325 324 323 322 322 322 321 320 319 318 316 310 306 308 310 310 308 292 284 297 303 300 298 301 301 304 305 305 304 297 294 293 299 301 298 301 300 302 299 295 293 291 282
327 326 325 325 325 324 323 322 322 322 322 321 319 317 314 312 303 309 310 303 289 286 297 294 295 296 295 295 298 298 295 292 289 285 285 290 293 299 301 295 299 299 293 283 278 281 282
327 326 325 325 325 324 323 323 323 323 322 320 317 315 312 312 309 310 305 294 285 293 292 298 296 295 293 296 295 295 293 290 293 290 285 283 283 293 298 294 293 295 294 285 275 280 282
326 326 325 325 324 324 323 323 323 322 320 317 312 301 305 309 311 308 296 286 287 292 296 294 294 290 290 294 293 292 290 290 291 291 285 284 285 296 296 297 297 293 290 294 286 287 282
326 326 325 325 324 323 323 323 323 322 319 313 301 301 301 311 311 301 292 291 291 297 297 295 288 291 286 289 290 289 289 294 293 295 292 288 283 292 295 298 298 294 297 289 289 281 275
326 326 326 325 324 322 322 323 324 322 319 314 300 294 302 309 304 296 288 289 295 298 298 293 291 290 290 289 289 288 289 294 295 294 294 289 285 286 291 289 289 289 288 294 291 290 283
327 326 326 325 323 322 322 322 323 320 316 307 297 290 303 304 293 292 290 293 299 296 297 296 295 294 291 291 289 289 289 292 296 295 290 291 286 282 286 292 294 290 288 292 286 285 289
328 327 326 325 324 322 321 322 322 317 312 300 292 292 304 301 289 290 290 295 297 296 295 295 294 295 294 291 288 290 291 297 296 294 290 290 285 280 282 286 290 287 289 291 293 290 285
328 327 327 325 324 321 320 320 320 317 313 300 292 288 296 297 294 290 289 291 292 298 296 296 294 295 292 290 292 289 289 294 295 294 304 297 287 284 280 283 286 285 289 290 289 280 281
327 327 327 326 324 322 321 320 320 317 314 299 292 290 294 290 292 291 292 292 290 290 295 295 291 292 289 286 287 287 288 288 291 298 292 289 283 285 287 289 289 288 288 289 285 284 280
326 326 327 326 325 323 321 320 319 316 311 296 289 288 291 289 292 291 293 291 291 291 290 288 287 290 287 285 287 285 287 285 286 289 286 286 282 285 285 289 289 288 289 288 287 285 285
325 325 325 325 325 323 321 319 317 314 307 295 294 296 294 292 290 290 291 292 293 292 292 293 291 288 286 288 290 291 290 290 289 286 284 283 284 283 280 287 287 284 286 287 286 288 286
314 319 324 325 324 323 322 319 317 313 308 296 296 295 291 287 291 292 294 294 292 292 291 293 291 287 291 295 294 291 289 289 289 288 288 283 284 284 280 284 278 287 290 290 290 290 290
313 314 321 324 324 323 322 320 318 315 311 302 300 295 290 286 291 293 294 292 293 292 291 292 293 293 294 291 287 285 286 287 289 289 285 286 284 281 278 280 285 287 289 288 286 286 291
313 314 316 323 323 322 321 320 318 315 313 303 301 302 295 288 287 294 292 292 289 288 289 291 292 293 292 288 286 281 280 285 284 287 288 287 287 284 281 278 278 287 289 291 289 281 291
312 313 314 315 322 322 321 320 318 316 313 306 301 304 298 289 293 295 292 292 292 288 286 287 289 289 290 284 282 280 282 287 283 284 284 284 284 281 280 278 284 291 291 292 279 283 291
310 313 314 314 321 321 321 320 318 316 314 307 300 303 298 290 291 296 297 293 291 290 287 288 287 287 286 282 282 282 282 286 285 286 286 285 281 280 281 279 281 293 291 287 290 290 292
311 312 314 314 313 320 320 319 318 317 314 309 297 304 305 297 292 302 301 300 297 296 291 289 288 288 287 284 285 284 285 285 285 282 289 284 288 285 286 287 294 294 293 293 293 293 292

GFSGBSN_sfc_thetae_105.txt.gz
Theta_e
319 319 320 320 319 320 320 320 320 321 321 322 323 323 323 324 324 324 323 324 324 325 325 325 326 326 317 301 301 312 333 325 314 313 310 306 301 299 294 295 296 292 295 299 300 300 300
319 319 318 319 319 321 321 321 321 321 321 322 323 323 323 323 323 323 323 323 324 324 324 325 326 325 309 297 309 313 319 312 314 312 309 308 304 304 298 297 294 296 297 298 299 299 299
320 320 320 320 320 320 321 321 321 321 321 322 322 322 321 321 321 321 322 323 323 323 324 325 325 319 308 302 309 308 314 311 313 313 309 310 309 303 301 297 301 299 294 296 296 297 296
321 321 320 320 321 321 321 321 321 321 321 322 322 322 321 320 320 321 322 322 323 323 323 324 323 313 302 315 311 312 312 312 314 313 312 312 311 306 301 302 300 295 292 288 296 297 298
321 321 320 321 321 322 322 322 322 321 321 321 321 320 320 320 320 321 322 323 325 325 324 324 313 309 299 318 309 312 312 310 311 311 311 314 309 301 301 294 290 291 287 288 292 298 297
321 320 320 321 322 322 322 322 322 321 321 321 320 320 320 320 321 322 322 321 325 323 321 321 317 297 302 303 310 312 310 312 308 308 306 304 299 295 294 291 285 288 288 290 290 296 296
320 321 321 322 322 322 322 321 321 321 321 321 321 320 320 320 320 321 313 304 301 297 305 300 301 303 305 310 311 308 311 309 307 302 295 299 293 290 293 295 295 293 291 290 293 297 294
321 322 322 322 322 322 321 321 320 320 320 321 321 320 319 319 320 318 308 304 303 305 297 307 307 307 310 309 303 306 310 302 300 295 296 294 289 296 299 300 297 295 292 291 294 297 294
323 323 323 322 322 322 321 321 320 320 320 320 320 320 319 318 318 308 305 304 308 309 298 304 309 306 307 308 302 303 307 302 298 295 294 290 295 301 300 298 295 294 292 291 292 297 295
324 324 324 324 323 322 321 321 321 321 321 321 320 320 319 317 306 305 303 308 307 310 293 297 302 305 307 308 301 310 309 304 299 295 296 292 298 296 297 296 296 290 297 297 296 294 288
324 324 324 324 323 323 323 322 321 321 321 320 320 319 318 314 303 303 306 308 309 305 282 299 302 309 304 302 301 303 309 304 297 297 294 289 291 294 295 295 297 293 299 297 295 291 290
325 325 325 324 324 324 323 322 322 322 321 320 320 319 317 308 305 307 309 308 307 290 283 296 301 296 296 298 299 303 299 300 301 293 292 291 296 298 297 299 298 299 297 294 291 288 281
326 326 325 325 324 324 323 323 323 323 323 321 319 318 314 311 301 308 309 302 289 285 296 294 293 295 294 294 296 296 293 291 288 284 284 289 291 295 299 293 296 297 291 282 277 278 282
326 326 325 325 324 324 323 323 323 323 322 319 317 314 312 310 308 309 302 292 284 292 291 297 294 294 291 294 293 293 291 288 291 288 284 282 282 291 296 292 290 293 290 286 275 278 281
326 325 325 324 324 324 323 323 323 322 321 317 311 300 302 306 310 306 294 286 286 290 294 293 292 288 288 292 291 290 288 289 290 290 284 283 283 293 295 294 295 291 287 291 286 287 281
326 325 325 325 324 323 323 323 323 322 320 312 299 299 300 310 308 300 292 290 290 295 295 294 287 290 285 288 289 288 287 292 292 293 291 287 282 289 293 296 296 293 294 287 287 280 278
326 326 325 325 324 322 322 323 323 322 319 313 297 292 299 307 303 295 288 289 294 296 297 292 289 288 288 288 288 286 288 292 294 293 292 288 284 285 289 287 286 287 285 291 289 289 282
327 326 325 325 323 322 322 322 323 322 315 304 294 288 301 302 292 290 289 292 298 294 296 294 294 292 290 290 288 287 288 290 295 294 289 289 285 281 285 290 291 289 285 289 283 280 287
328 327 326 325 324 322 321 322 322 319 310 298 290 290 301 299 288 289 290 294 295 294 293 294 293 294 292 289 286 289 290 295 293 292 287 289 283 278 281 285 288 286 288 287 291 287 283
328 327 327 325 324 322 321 321 320 318 313 297 291 287 294 295 292 291 289 292 292 296 295 295 293 293 290 288 290 288 288 293 293 294 301 294 285 281 278 281 285 284 287 288 286 279 279
327 327 327 326 324 322 321 320 320 318 313 296 290 288 292 289 291 289 292 292 291 290 293 294 290 291 288 284 286 286 288 288 290 294 290 287 282 282 285 287 287 287 287 287 283 283 280
324 326 327 327 324 323 321 320 320 317 310 294 288 287 290 291 292 291 292 290 291 291 290 288 287 289 288 285 287 285 286 285 284 287 284 284 279 283 283 287 287 286 288 288 285 284 284
315 321 324 325 325 323 321 320 318 314 307 294 292 294 293 291 289 290 290 291 292 293 292 291 290 288 286 288 289 289 289 288 287 285 283 282 281 281 279 285 286 283 285 286 285 286 285
312 313 314 319 324 323 322 320 319 313 310 296 294 296 291 287 290 292 294 294 293 292 291 291 290 288 291 293 291 288 287 288 287 286 287 282 283 282 279 283 278 286 289 289 288 289 289
312 312 313 314 315 321 322 321 320 315 312 300 297 293 291 285 291 292 293 293 292 292 290 291 292 292 293 290 284 283 284 285 287 286 284 285 283 280 278 278 284 287 287 287 285 285 291
309 310 313 314 315 317 321 321 320 316 314 305 300 297 291 286 286 294 293 292 289 288 288 290 291 291 291 287 285 280 279 283 283 285 285 285 286 283 280 277 278 286 288 289 288 281 291
311 310 311 314 313 314 321 320 320 317 315 309 299 303 295 287 289 294 291 292 292 289 288 286 289 289 288 283 281 279 280 285 281 282 282 282 282 278 280 277 283 290 291 290 279 283 291
311 311 310 310 313 313 315 321 320 317 315 311 301 301 298 291 291 297 297 292 291 291 287 288 287 286 285 281 281 281 280 284 283 285 285 283 280 279 280 277 279 293 289 286 288 289 291
310 311 311 311 313 314 314 319 319 318 316 313 297 302 300 293 290 299 299 298 296 295 291 286 289 286 288 283 282 283 283 283 284 281 286 282 287 284 285 285 292 293 291 292 292 292 292

GFSGBSN_sfc_thetae_108.txt.gz
Theta_e
319 320 320 319 320 321 321 321 321 321 322 323 323 323 323 323 323 323 323 323 324 324 325 325 326 327 316 300 301 309 334 321 312 312 308 305 301 298 294 294 295 291 293 298 300 300 299
319 318 318 319 320 321 321 321 321 321 321 322 323 322 322 321 321 321 322 322 324 324 324 324 326 325 307 297 308 310 315 311 313 311 308 307 303 303 298 296 294 295 296 297 298 298 298
320 320 320 320 320 321 321 321 321 321 322 322 322 322 321 321 321 321 322 323 324 323 324 324 325 319 305 302 308 308 312 309 312 312 308 308 308 302 301 297 300 299 294 296 295 296 296
321 321 321 321 321 321 321 322 322 322 322 322 322 321 320 320 320 321 323 323 323 324 323 324 323 311 300 313 311 311 310 310 312 312 311 310 309 305 300 301 298 294 292 289 296 297 298
321 321 321 321 321 321 322 322 322 321 321 321 321 320 320 320 320 322 323 323 326 325 325 324 312 307 297 316 308 310 310 309 310 310 310 314 307 300 300 293 290 291 286 288 292 297 297
321 321 321 321 322 322 322 322 322 321 321 320 320 321 320 320 321 322 322 321 326 322 320 320 316 296 301 302 308 310 309 311 307 307 304 303 298 294 293 291 285 287 287 289 289 295 295
321 320 321 322 322 322 322 321 321 320 321 321 321 321 320 320 321 322 311 301 298 296 303 298 300 300 303 308 309 306 310 307 305 300 294 297 293 289 292 294 294 292 291 289 294 297 294
322 321 322 322 322 322 321 321 321 320 320 321 321 321 320 320 319 318 307 303 302 304 294 305 306 306 308 308 302 304 308 301 299 294 295 292 288 294 298 299 296 294 291 290 294 297 294
322 322 323 323 322 322 321 321 321 320 320 320 320 320 320 319 317 308 304 302 307 307 296 302 307 306 306 307 301 302 306 301 296 294 292 289 293 299 297 296 294 292 290 290 291 296 296
323 323 324 323 323 322 322 321 321 321 321 321 320 320 319 317 307 304 302 307 307 308 291 295 301 303 305 306 299 308 307 302 297 293 294 291 295 294 294 294 294 289 295 295 294 290 285
323 324 324 323 323 323 323 322 321 321 321 321 320 319 318 315 301 302 305 308 309 302 282 297 301 307 300 301 300 301 306 302 295 293 292 287 290 291 293 294 295 292 297 295 293 289 285
325 324 325 324 324 323 323 322 322 322 321 321 321 319 317 306 303 305 308 308 305 290 282 294 299 295 295 298 298 300 298 299 298 291 291 291 294 294 295 298 296 298 295 291 289 286 281
325 325 325 325 324 324 323 322 322 322 322 321 319 318 313 310 299 307 308 300 288 284 294 292 292 294 292 292 294 294 292 290 287 283 282 287 289 293 297 291 293 296 289 280 278 277 276
325 325 325 324 324 324 323 323 322 322 322 321 317 314 310 310 307 308 300 292 284 291 290 295 293 292 289 292 291 292 290 287 290 288 283 280 280 289 294 290 288 292 289 282 279 279 281
326 325 324 324 324 324 323 323 323 322 321 317 311 298 300 304 309 304 294 286 287 289 293 291 290 287 287 290 290 289 287 288 289 289 283 282 282 291 293 293 293 288 286 290 285 282 281
326 325 324 324 324 323 323 323 323 322 320 312 298 296 298 308 306 298 291 290 290 294 294 293 285 288 284 287 288 287 286 291 291 292 290 285 281 287 291 294 293 293 293 285 284 276 277
326 326 325 324 323 322 322 323 323 322 320 311 294 289 297 305 301 293 288 288 293 296 296 291 288 287 287 287 286 285 287 290 292 292 291 287 284 284 287 286 284 286 284 288 287 286 277
327 326 325 324 323 322 322 322 323 322 315 303 291 285 298 299 291 288 288 292 298 294 295 294 292 291 289 288 286 286 287 289 292 291 285 288 283 280 283 288 289 287 284 287 282 281 284
328 327 326 325 323 322 321 322 322 319 310 297 289 287 298 297 287 287 290 293 295 293 293 293 292 293 291 288 285 288 289 294 292 289 285 287 282 277 279 283 286 285 286 286 288 284 280
320 326 327 325 323 322 321 321 320 318 311 296 289 285 293 293 291 290 288 290 291 296 294 293 291 292 289 287 289 287 287 292 291 293 299 293 284 280 276 279 283 283 286 286 284 278 278
317 320 327 326 324 322 321 320 320 319 312 295 288 287 291 288 290 289 290 292 290 290 293 292 289 291 288 283 285 285 287 287 289 293 287 285 280 281 283 285 285 285 285 286 283 282 279
315 316 317 326 325 323 321 320 320 317 310 294 286 285 289 290 291 290 292 290 290 291 292 290 287 290 288 285 287 286 285 283 284 286 282 283 278 281 280 285 285 284 287 286 285 283 283
313 315 315 323 324 323 321 320 319 315 309 295 290 292 292 291 289 289 289 291 292 292 292 292 290 288 286 288 289 290 288 287 286 285 282 282 280 280 278 283 284 282 285 285 283 285 284
313 314 312 313 315 321 321 320 319 314 314 296 292 295 290 285 289 291 293 294 293 292 291 291 290 288 290 291 289 287 286 286 285 285 286 280 281 281 278 281 278 285 288 288 286 288 288
313 313 313 312 313 314 321 321 320 315 314 297 295 295 291 283 289 291 293 293 292 291 290 290 290 291 291 288 284 282 283 284 285 285 283 284 282 279 277 278 283 286 286 286 285 284 290
312 311 310 312 314 313 314 314 320 317 314 311 299 296 291 285 285 293 292 291 288 288 289 290 291 290 290 286 284 279 280 281 282 283 284 284 284 281 279 277 277 285 287 288 287 281 289
312 312 310 310 311 313 313 315 317 318 315 313 301 302 295 287 287 293 291 291 292 290 288 288 290 288 287 282 280 279 280 284 281 281 280 279 280 277 278 277 282 288 290 288 278 284 289
311 311 311 311 310 312 314 314 315 318 316 314 307 304 299 289 290 295 296 292 291 291 288 288 288 286 284 281 280 280 280 283 282 284 283 282 279 278 279 277 278 291 288 284 287 288 290
309 310 311 311 310 309 310 313 314 315 317 315 304 303 299 294 289 297 299 298 296 296 291 286 289 286 287 282 281 282 282 282 283 281 285 282 286 283 284 284 291 291 290 290 291 291 290

GFSGBSN_sfc_thetae_111.txt.gz
Theta_e
318 319 319 319 319 321 321 322 321 321 322 322 323 323 323 323 323 322 323 323 324 325 326 325 326 327 318 305 306 311 336 321 314 315 310 308 304 302 299 299 299 296 297 299 301 302 301
319 318 319 320 320 321 321 322 321 321 322 323 323 323 322 321 321 322 323 324 324 325 324 325 326 325 309 301 310 312 315 313 315 313 311 309 306 306 301 299 298 299 299 300 301 301 301
321 320 320 320 320 321 321 322 322 322 322 322 322 321 320 320 321 322 323 324 324 324 324 324 325 318 308 305 311 312 313 312 314 314 310 311 310 306 304 300 303 301 297 299 300 300 300
322 322 321 321 320 321 321 321 322 322 321 321 321 320 320 321 321 322 323 324 324 324 323 324 324 315 303 314 314 313 314 313 315 315 314 314 313 307 304 304 301 297 297 294 301 301 301
322 322 322 321 321 320 321 322 322 321 321 321 321 320 320 320 321 322 323 325 326 325 324 324 315 309 301 318 309 312 314 311 312 312 313 313 309 303 302 297 295 295 291 292 295 300 299
322 322 321 321 322 322 322 322 321 321 321 321 321 321 320 321 321 322 322 322 326 320 319 319 314 301 304 303 309 311 314 313 310 309 306 305 302 299 297 296 289 291 291 293 293 298 299
323 322 321 321 322 322 322 322 321 320 320 320 321 321 320 320 320 321 310 301 299 299 304 301 302 301 304 309 311 308 312 310 308 303 298 300 296 293 296 296 297 295 293 292 296 300 297
324 323 321 322 322 322 322 321 321 320 320 321 321 321 320 320 319 318 307 303 303 304 297 305 306 306 308 309 303 305 311 304 303 297 299 295 292 297 298 299 298 296 293 293 296 299 297
324 323 322 323 323 322 322 321 321 320 320 321 321 320 320 319 316 308 304 304 307 309 297 303 308 307 307 308 303 303 308 304 300 297 296 293 295 299 297 297 295 294 292 292 293 297 298
325 324 323 323 324 323 322 322 321 320 321 321 321 320 319 317 307 305 304 308 308 310 292 296 302 305 306 308 301 309 308 305 301 296 296 294 296 294 295 294 296 290 296 296 295 292 287
326 325 324 324 324 323 323 322 321 321 321 320 321 320 318 314 303 302 306 309 310 303 284 298 301 307 302 302 301 302 305 305 298 296 296 290 291 292 294 294 297 293 298 296 294 291 290
327 325 325 324 324 324 323 322 321 321 321 321 321 319 317 305 303 306 309 309 304 291 284 295 299 295 296 298 298 300 299 300 300 294 292 293 296 295 298 298 298 299 296 293 291 289 285
327 326 325 324 324 324 323 322 322 321 322 321 320 318 312 309 300 307 308 300 290 285 295 293 293 294 293 293 295 295 294 292 290 286 285 288 291 294 298 293 295 298 292 285 284 283 283
327 326 324 324 324 324 323 323 322 321 321 320 318 313 306 309 307 308 301 292 285 291 291 295 293 293 291 293 292 292 292 290 292 290 285 284 283 291 295 293 291 294 292 285 278 280 283
327 325 324 324 324 324 323 323 322 322 321 317 309 297 299 303 308 303 295 287 288 290 294 292 291 288 289 291 291 290 291 290 292 292 287 285 284 292 294 295 296 292 289 294 286 285 283
327 326 325 324 323 323 323 323 323 322 320 311 299 294 295 308 306 297 292 290 291 295 294 293 287 290 286 288 289 288 289 293 292 294 293 290 283 289 292 297 294 294 296 288 287 279 279
327 326 325 324 323 322 322 323 323 322 318 309 293 288 295 305 300 294 289 289 293 296 296 291 289 289 289 289 289 288 289 292 293 293 293 290 287 286 289 289 287 289 288 290 291 289 283
320 324 326 325 323 322 322 322 323 321 313 303 290 284 296 299 291 288 288 291 297 294 296 295 293 292 290 290 289 288 289 291 292 293 287 291 286 282 286 290 290 291 288 289 285 284 288
320 320 321 325 323 321 321 322 322 318 312 296 287 286 298 296 287 287 291 292 295 293 293 293 293 294 293 290 287 289 290 295 293 291 289 290 285 280 281 287 289 287 289 289 289 288 285
317 319 319 320 324 321 320 321 320 317 310 296 287 283 291 293 290 290 288 290 291 295 294 294 293 294 291 289 291 289 289 293 293 295 299 294 286 283 279 282 286 284 286 288 287 283 283
316 316 317 317 317 322 321 320 320 318 310 297 288 286 290 288 289 290 290 291 290 290 293 293 291 292 290 286 287 287 289 289 290 293 289 287 282 284 285 286 285 285 285 286 286 286 284
315 315 315 315 315 316 321 321 320 317 311 295 285 284 288 288 290 290 291 289 290 291 291 291 289 292 289 287 289 288 288 286 287 288 286 285 281 283 282 286 286 285 287 287 287 287 286
314 313 313 313 314 314 320 319 319 315 312 299 291 290 292 290 288 288 288 290 291 292 292 293 293 289 288 289 290 291 290 289 289 287 284 284 283 283 280 284 285 284 287 287 287 288 287
313 313 313 313 314 314 316 320 319 314 314 299 292 294 290 285 289 289 292 293 292 292 291 291 291 290 292 293 291 289 288 288 287 286 287 283 283 283 281 284 280 288 292 290 288 288 290
312 313 313 313 313 313 314 320 320 315 315 301 295 295 290 284 289 290 293 292 291 291 289 290 290 292 293 290 286 285 284 286 285 285 285 285 284 282 281 280 284 288 289 289 287 288 292
311 312 312 312 311 312 313 317 320 316 315 311 296 297 292 286 285 293 292 292 288 287 288 289 291 292 291 287 285 283 282 283 284 284 285 285 285 283 282 280 280 287 291 292 291 285 291
310 311 312 312 310 312 314 313 313 314 315 313 305 298 293 287 288 293 291 291 292 290 287 288 289 290 290 285 283 282 282 286 283 283 280 281 282 280 280 281 284 290 292 291 285 289 292
309 310 311 311 310 310 312 312 313 314 316 315 308 304 297 288 289 293 296 292 292 292 288 288 289 287 285 284 283 282 281 284 284 285 283 282 281 280 280 280 280 292 291 287 291 293 294
308 309 310 311 311 310 310 311 312 314 313 316 304 305 303 295 291 297 298 298 297 297 292 287 290 287 287 284 282 282 282 283 284 282 286 285 287 285 285 286 292 293 293 293 294 294 295

GFSGBSN_sfc_thetae_114.txt.gz
Theta_e
319 320 320 320 320 321 322 322 322 322 322 323 324 323 323 322 322 322 323 324 325 326 326 326 326 327 322 310 310 316 334 325 319 318 315 313 310 308 304 305 304 301 304 305 306 306 307
319 320 320 321 321 321 321 322 322 322 322 323 323 322 321 322 322 323 324 324 325 326 325 325 326 326 315 305 316 317 317 317 318 317 314 314 311 310 306 305 304 305 306 306 307 307 307
321 321 321 321 322 321 322 322 321 322 322 322 321 321 321 321 322 323 324 324 325 325 325 325 325 322 312 309 318 319 317 316 317 317 313 315 314 311 309 305 307 306 302 305 305 306 305
321 321 321 321 321 322 322 322 321 322 321 321 321 321 321 322 322 323 323 324 326 324 324 324 324 320 308 319 322 317 318 317 318 318 316 316 316 311 308 309 306 302 302 299 304 305 305
322 322 321 321 321 321 321 321 322 321 321 321 321 320 320 320 321 322 322 325 327 325 324 324 320 315 306 319 313 317 318 314 315 316 317 315 313 308 307 303 301 302 296 297 300 306 304
323 323 322 321 321 321 322 322 321 321 321 321 321 321 321 321 321 322 320 323 324 321 322 321 316 308 310 308 313 315 318 316 313 312 310 309 309 305 305 301 292 295 296 297 297 302 303
325 324 323 321 322 322 323 322 321 321 320 321 321 321 320 321 320 320 316 312 309 307 312 306 307 306 308 315 315 313 316 314 312 309 301 306 302 297 299 301 301 299 297 297 300 303 301
325 325 324 322 322 323 323 322 321 320 320 321 321 321 320 320 319 315 315 309 309 310 305 309 310 311 312 314 307 311 316 307 306 301 303 301 298 301 302 301 300 299 297 297 300 302 301
327 325 325 323 322 323 323 322 321 320 320 321 321 321 320 319 318 315 312 309 313 314 306 307 311 311 310 312 306 308 310 308 304 301 299 297 298 301 299 299 297 298 295 296 297 300 301
327 326 326 324 323 323 324 323 322 321 320 321 321 321 319 317 313 312 310 313 316 317 301 301 305 308 309 309 304 310 309 307 304 299 299 298 299 297 298 297 298 294 299 299 298 296 291
328 327 326 325 324 324 324 323 322 321 320 320 321 320 318 313 312 309 312 317 318 315 292 302 304 310 307 305 304 305 307 306 300 300 299 295 296 295 296 296 299 296 302 299 298 296 295
328 328 327 325 324 324 323 322 322 321 320 321 321 320 317 311 314 313 317 317 315 299 291 299 303 299 300 302 302 304 304 306 303 297 297 296 299 298 299 300 299 302 300 298 297 296 291
328 327 326 325 324 324 324 323 322 321 321 321 320 319 313 312 308 316 317 312 298 293 299 297 297 298 297 297 298 299 299 297 295 292 292 295 295 298 299 297 300 301 298 294 291 291 288
328 327 326 325 324 324 324 323 322 321 321 320 318 312 310 313 316 316 313 302 293 296 296 299 297 297 296 297 296 297 297 296 297 295 293 290 289 294 298 296 295 297 297 291 283 285 289
322 327 325 325 324 324 324 323 322 322 320 318 310 307 308 313 315 314 305 297 297 297 299 297 295 294 294 295 296 296 295 295 296 296 291 290 290 296 297 299 300 295 293 298 290 290 288
321 324 326 325 324 323 323 323 323 322 320 313 310 302 304 314 315 309 302 297 298 300 298 297 293 295 292 293 294 294 293 296 295 297 298 294 288 293 295 300 299 297 299 292 295 285 283
318 319 323 325 324 322 322 323 323 322 318 310 304 296 305 315 309 304 297 298 298 301 300 296 294 294 294 294 294 293 293 296 297 295 297 295 291 291 294 292 292 295 294 294 295 293 287
317 317 319 321 324 322 322 323 323 321 314 308 299 292 307 308 299 300 298 298 300 299 300 298 298 296 295 296 294 293 293 296 297 295 291 295 292 288 289 294 295 295 293 292 290 287 293
317 317 317 319 320 321 321 322 322 317 312 305 295 295 306 304 294 296 298 297 299 297 297 297 296 298 297 295 292 294 295 297 296 295 293 296 291 287 288 292 293 291 292 292 293 294 289
317 317 317 318 318 317 320 321 320 317 313 303 295 291 299 301 300 297 297 296 295 298 298 298 297 298 295 293 296 294 294 296 296 296 300 298 293 289 286 288 290 288 289 291 291 290 289
314 316 317 317 316 316 316 320 320 317 312 304 296 293 299 293 295 296 298 298 295 293 297 297 294 295 294 291 292 293 295 295 293 296 294 295 289 289 290 290 290 289 288 290 289 293 289
313 314 315 316 316 315 315 316 320 318 311 305 295 293 294 297 296 295 295 295 295 295 296 295 294 296 295 293 294 293 294 294 294 293 292 291 288 288 288 290 290 289 292 292 292 293 292
311 313 314 314 314 314 314 314 313 317 312 308 299 298 297 295 295 293 294 296 296 297 298 299 298 296 293 296 299 298 299 297 296 293 291 290 290 287 287 289 290 289 292 293 294 294 292
310 311 312 314 314 314 314 314 313 316 314 307 301 299 296 290 293 293 295 296 296 297 298 297 299 298 297 298 297 297 295 293 293 292 294 290 289 289 287 290 284 292 296 295 293 294 295
309 311 311 313 313 314 314 314 315 316 315 308 301 299 298 294 293 293 295 295 297 299 296 296 296 299 300 298 295 291 290 291 289 290 291 292 290 287 287 287 291 293 294 294 292 294 297
309 310 311 312 312 313 312 312 313 314 315 310 301 302 299 296 292 296 295 296 294 295 293 293 294 298 298 295 293 290 290 291 288 287 290 290 291 288 288 285 284 292 295 296 295 290 296
308 309 310 311 312 313 311 312 313 314 315 315 306 301 297 292 296 298 296 295 297 296 295 293 293 294 296 294 291 289 290 292 289 289 286 287 287 286 288 287 291 297 296 295 288 293 297
308 308 309 310 310 311 311 311 313 312 313 314 307 303 300 294 295 298 300 297 296 297 294 294 293 293 293 292 292 291 290 291 290 292 289 289 287 286 288 286 285 298 296 292 299 299 299
307 307 308 309 310 311 311 310 311 312 312 313 304 304 305 299 298 299 301 303 303 302 297 296 299 296 297 295 292 292 289 291 293 290 293 290 294 292 293 294 299 299 301 301 301 301 301

GFSGBSN_sfc_thetae_117.txt.gz
Theta_e
321 321 320 320 321 321 321 323 322 323 323 324 324 323 323 323 323 323 324 325 326 327 327 327 327 327 325 314 311 320 326 327 322 320 316 314 311 310 306 307 307 305 306 308 309 309 308
321 321 321 321 321 320 322 322 323 323 323 323 323 322 322 322 322 323 324 325 326 326 326 326 326 326 321 306 319 320 319 319 319 319 316 315 312 312 309 307 306 308 307 307 308 308 308
321 322 321 321 320 320 321 321 322 322 322 322 322 322 321 321 322 323 324 324 326 326 325 326 326 325 315 311 321 322 320 319 319 319 315 316 316 312 311 307 310 308 304 307 306 307 306
323 322 321 321 321 321 320 321 322 322 321 321 321 321 321 321 321 323 323 324 325 324 324 325 325 322 310 321 323 320 321 319 320 320 318 319 318 313 310 312 309 305 305 300 306 306 307
324 323 322 323 322 322 321 321 322 322 321 321 321 321 321 320 321 322 322 325 326 325 325 325 323 318 308 319 315 319 320 315 317 318 318 317 316 310 310 305 303 304 297 299 302 307 305
325 324 324 323 322 322 322 322 322 322 321 321 321 322 322 321 321 321 321 323 323 320 324 322 318 311 312 309 316 317 319 318 314 314 313 311 310 306 305 301 293 295 297 299 299 304 304
327 326 325 324 323 322 323 324 322 321 321 320 321 322 321 321 321 320 316 316 312 310 314 309 309 307 309 315 318 315 317 315 314 311 302 307 303 299 300 302 301 300 298 298 302 304 302
328 327 326 326 324 322 323 323 323 321 320 321 321 322 321 320 319 319 316 310 312 315 306 312 312 312 314 315 309 312 316 308 306 302 304 302 299 302 303 302 301 299 298 298 302 303 302
328 328 327 327 325 323 323 323 323 322 320 320 321 321 321 319 318 316 315 311 317 318 308 308 312 311 312 312 307 309 310 308 304 301 301 298 301 301 300 300 298 299 297 297 297 302 303
329 328 327 327 326 325 324 324 324 322 321 320 321 321 320 317 312 315 313 317 320 320 303 304 306 311 311 309 306 311 310 307 304 300 301 299 301 299 299 298 299 295 301 301 300 298 293
329 329 328 326 326 325 324 324 324 322 321 320 320 320 320 317 315 312 314 321 322 318 294 304 306 312 309 306 306 307 310 307 301 300 299 297 297 298 297 297 300 298 302 301 301 298 297
327 329 328 327 326 325 323 323 323 322 321 320 320 320 318 314 316 315 320 321 319 302 293 301 306 302 302 304 304 306 305 308 305 300 300 298 301 300 300 301 302 303 302 302 301 299 291
324 326 328 327 326 325 323 323 323 322 321 321 320 319 316 311 312 319 321 317 301 295 302 300 300 300 300 300 301 300 300 299 297 294 295 297 297 300 301 299 302 301 299 294 291 291 289
324 323 325 327 326 325 323 323 323 322 322 321 319 317 312 312 318 319 317 305 295 299 300 302 300 299 298 299 299 299 299 298 299 298 295 292 290 295 299 299 296 298 298 291 283 286 289
322 322 322 322 326 325 324 323 323 322 321 319 316 311 307 311 318 317 308 298 299 302 303 300 298 296 297 298 298 298 298 298 298 298 293 292 292 298 298 301 300 297 294 299 292 294 291
320 320 319 319 323 324 323 323 323 322 320 318 311 305 304 316 317 313 304 299 302 304 302 302 297 299 296 296 296 297 296 299 298 298 300 296 290 296 296 300 301 298 300 294 296 286 285
318 319 319 318 318 322 323 323 323 322 319 315 308 298 309 318 316 306 298 301 302 305 303 300 299 298 298 297 297 296 296 298 299 298 299 296 293 294 296 295 294 297 296 296 297 294 288
316 317 318 318 318 317 320 322 323 321 317 310 304 292 311 316 299 299 297 302 303 303 303 300 301 300 299 299 297 296 296 298 301 298 295 297 295 291 292 297 298 297 294 295 290 289 293
314 316 317 318 318 318 318 322 322 319 313 311 299 298 311 310 293 295 300 300 302 301 301 300 299 301 301 298 295 297 297 300 299 298 296 298 294 290 290 294 296 293 294 293 293 296 292
313 314 315 317 317 317 316 317 321 318 315 311 300 292 301 303 301 297 297 297 297 303 301 301 301 301 299 297 298 295 295 298 299 298 300 299 296 293 289 291 294 291 293 293 292 290 291
312 312 314 315 316 316 316 315 319 318 316 309 301 296 299 294 296 298 299 298 297 295 300 301 298 299 298 294 294 293 297 297 297 299 298 297 293 294 294 293 293 292 291 291 290 293 290
311 311 312 313 315 315 316 315 315 314 315 308 300 296 299 297 297 296 296 296 296 298 298 296 297 299 299 296 296 294 297 297 297 297 296 296 292 291 291 295 292 291 293 294 294 295 294
309 310 311 312 313 314 315 315 313 312 314 305 309 306 299 296 296 295 296 295 297 300 299 301 299 299 297 299 301 302 302 301 300 296 295 294 293 292 290 293 293 291 295 295 295 297 296
309 309 310 310 312 313 314 314 314 313 312 312 311 307 297 292 295 295 296 297 297 299 298 301 302 300 302 304 301 300 299 297 297 296 298 293 293 292 289 293 287 294 298 298 297 297 298
308 308 309 309 311 312 313 314 314 314 313 311 307 303 299 295 295 295 296 296 297 300 299 301 302 306 303 301 297 293 293 293 293 293 294 295 294 290 288 290 294 295 296 295 294 295 300
307 308 308 309 310 311 312 313 314 313 312 312 308 307 304 297 297 298 295 297 295 296 298 299 299 304 303 300 297 291 290 293 289 289 293 294 294 291 291 287 286 295 297 299 298 291 301
307 307 308 309 309 310 311 312 313 313 313 311 310 308 302 296 302 301 295 296 300 298 297 297 296 296 301 297 293 292 292 296 290 290 287 289 290 288 290 289 294 300 298 299 289 294 299
306 307 307 308 309 310 311 311 312 312 313 312 308 306 304 298 302 302 302 299 299 300 296 298 295 296 296 295 294 294 293 294 294 296 292 291 290 289 291 289 287 301 297 293 301 302 302
306 306 307 307 308 309 310 311 311 311 312 311 304 306 308 302 301 302 301 302 304 304 301 298 299 298 300 297 298 298 294 296 295 290 297 292 297 295 295 296 302 302 302 303 304 304 303

GFSGBSN_sfc_thetae_120.txt.gz
Theta_e
322 321 321 321 322 321 321 322 322 323 324 324 324 323 323 323 323 324 325 325 326 327 327 327 327 327 324 315 310 320 334 333 322 320 315 313 310 309 306 306 307 304 306 307 308 308 308
322 322 321 321 321 321 321 322 322 322 323 322 323 323 323 322 322 323 324 325 326 326 327 327 327 326 320 308 319 321 320 319 319 318 315 314 310 311 308 306 305 307 306 306 308 308 308
324 322 322 321 320 321 321 321 322 322 322 322 322 322 322 322 323 322 324 324 326 327 326 326 326 325 316 310 320 322 320 319 320 318 314 316 315 311 310 306 311 307 302 306 307 308 306
324 324 323 322 322 322 321 321 322 323 322 322 322 322 322 323 322 322 323 324 327 325 325 326 326 321 311 320 322 319 320 318 321 320 318 320 318 313 310 311 308 304 304 298 305 307 307
325 325 324 323 323 323 322 321 322 323 322 321 321 322 322 322 322 322 323 323 328 327 326 326 321 318 309 320 315 318 320 314 316 318 319 317 315 311 310 303 298 302 293 296 300 307 305
327 327 325 325 324 323 323 322 322 323 322 321 321 322 322 322 322 322 323 322 326 322 323 325 319 310 312 309 315 317 319 318 314 314 312 311 309 304 304 298 289 292 293 296 297 302 303
329 328 327 326 326 324 323 323 323 323 322 321 321 322 321 322 321 321 318 315 310 309 314 309 309 307 309 314 318 314 316 314 314 310 303 307 300 297 298 300 299 298 296 296 299 304 301
330 329 328 327 326 325 324 323 324 323 322 322 321 322 321 321 320 319 316 311 311 313 306 312 312 311 312 313 307 311 316 307 306 300 304 300 297 300 301 301 299 298 296 296 299 303 301
330 329 328 328 327 326 325 324 324 324 323 321 321 321 321 320 319 314 315 312 317 318 308 307 310 310 312 311 306 308 310 307 302 300 301 296 300 301 299 299 296 296 295 296 297 301 302
326 330 329 328 327 327 326 324 324 324 323 322 320 320 321 320 314 314 312 318 319 320 302 302 305 309 312 310 305 312 311 307 303 300 300 299 301 298 298 297 297 293 299 300 300 297 291
325 326 328 328 327 327 326 324 324 324 323 321 320 320 320 319 311 312 314 321 322 318 291 304 306 312 309 305 307 307 312 306 300 300 300 297 297 297 296 296 299 295 300 299 300 296 295
321 324 325 325 327 326 325 324 323 323 322 321 320 320 319 314 314 316 318 321 318 300 291 300 305 303 301 304 305 306 305 308 308 300 300 298 302 301 298 299 301 302 300 301 300 296 288
318 321 323 323 323 326 325 324 323 324 323 321 320 320 317 313 309 319 321 316 298 293 304 299 300 302 301 301 301 301 300 300 296 293 294 298 297 300 301 297 302 301 295 289 286 286 284
316 318 321 322 322 323 326 324 323 323 323 321 319 319 316 311 315 319 315 306 294 301 300 304 302 300 297 300 299 300 299 297 300 297 293 291 289 296 298 299 295 296 295 287 280 281 285
317 317 319 321 321 322 323 325 323 323 322 319 317 312 310 309 311 316 307 295 296 301 304 300 299 296 297 298 298 298 298 298 298 297 291 291 292 298 298 300 298 295 290 298 290 292 287
315 316 317 319 319 319 319 320 324 323 321 317 310 306 304 309 314 311 301 297 300 306 305 302 296 298 296 296 295 296 296 300 298 299 299 295 288 296 296 299 300 297 299 290 292 280 281
315 315 316 317 318 319 318 318 323 323 320 317 309 300 307 314 312 304 294 297 302 306 305 301 299 298 299 297 297 296 296 298 301 298 299 296 292 292 296 294 292 294 293 293 293 291 283
314 314 315 316 316 317 318 318 318 322 318 314 305 293 310 314 299 297 294 299 303 304 305 303 302 302 299 299 297 297 296 298 301 300 296 296 292 289 291 296 298 295 292 291 285 285 288
311 313 314 314 315 316 317 318 317 318 315 309 299 299 310 310 290 291 295 297 300 303 301 300 299 303 302 299 295 298 298 301 300 299 296 297 292 286 288 292 294 292 294 292 290 289 287
310 311 312 313 314 314 315 317 317 315 315 310 299 291 300 303 301 294 292 294 296 304 302 302 301 302 299 297 299 296 296 298 299 300 302 300 293 290 286 290 292 289 292 291 288 283 286
310 310 311 312 313 314 314 316 316 315 316 310 302 294 298 291 293 295 295 295 296 296 301 301 298 299 297 294 295 294 297 295 298 301 297 295 291 294 293 293 292 291 291 291 288 288 284
309 310 310 311 312 313 314 315 315 314 312 307 298 296 297 295 295 293 294 294 295 297 297 296 297 298 298 295 296 293 296 295 294 295 295 295 289 291 289 294 293 290 292 292 291 290 290
308 309 309 310 310 311 313 313 314 313 310 306 306 308 300 296 293 292 292 294 295 299 299 301 299 298 297 298 300 301 300 299 297 294 294 292 290 290 287 292 291 288 292 293 293 294 293
307 308 308 309 309 310 311 312 313 312 310 307 306 306 301 292 293 292 294 295 294 297 297 300 300 299 302 301 300 299 297 296 296 296 297 292 290 290 285 289 283 292 296 296 295 296 296
307 307 308 308 309 309 310 311 312 312 311 307 308 305 302 294 295 294 294 294 296 296 298 298 301 303 302 300 294 291 291 291 293 295 293 293 291 287 283 285 291 293 295 294 292 292 297
306 307 307 308 308 309 309 310 312 312 311 307 307 308 305 297 295 297 294 295 293 293 296 297 300 303 302 297 294 288 286 290 286 288 293 293 292 288 287 282 282 292 296 298 296 286 297
306 306 307 307 308 308 308 309 310 311 311 308 305 309 304 299 303 301 294 293 296 294 294 294 296 297 300 295 291 289 289 295 286 285 285 286 286 284 284 284 291 297 296 297 285 290 296
305 305 306 306 307 307 308 309 310 311 311 309 306 309 305 299 302 305 305 300 297 296 293 295 294 294 293 292 291 291 291 292 292 292 288 287 286 284 286 284 283 297 294 290 296 296 298
305 305 305 306 306 307 308 309 310 310 311 310 302 308 310 303 302 306 307 309 300 297 297 297 296 295 296 294 295 294 291 293 292 287 295 288 294 290 291 291 298 298 298 299 302 298 298